Bel Air, Maryland - USA


Today's Data File


9/1/26
Time         Wind Dir   Wind Spd  Wind Gust     Hum In   Humidity    Temp In       Temp  Raw Barom Wind Chill  Press Alt Cloud Base   Dens Alt Temp Out R  DailyRain   24HrRain   RainRate
                    �        mph        mph          %          %         �F         �F         in         �F         ft         ft         ft      �F/hr         in         in      in/hr
12:00am           164          0          0         44         97       72.4       73.0      29.49       73.0        397        224       1414      -0.26       0.00       0.00      0.000
12:01am           164          0          0         44         97       72.4       73.0      29.49       73.0        398        224       1415      -0.26       0.00       0.00      0.000
12:02am           164          0          0         44         97       72.4       73.0      29.49       73.0        399        224       1416      -0.26       0.00       0.00      0.000
12:03am           164          0          0         44         97       72.4       73.0      29.49       73.0        400        224       1417      -0.25       0.00       0.00      0.000
12:04am           164          0          0         44         97       72.4       73.0      29.49       73.0        401        224       1418      -0.25       0.00       0.00      0.000
12:05am           164          0          0         44         97       72.4       73.0      29.49       73.0        401        224       1418      -0.24       0.00       0.00      0.000
12:06am           164          0          0         44         97       72.4       73.0      29.49       73.0        401        224       1418      -0.24       0.00       0.00      0.000
12:07am           164          0          0         44         97       72.4       73.0      29.49       73.0        402        224       1419      -0.24       0.00       0.00      0.000
12:08am           164          0          0         44         97       72.4       73.0      29.49       73.0        403        224       1420      -0.23       0.00       0.00      0.000
12:09am           164          0          0         44         97       72.4       73.0      29.49       73.0        404        224       1421      -0.23       0.00       0.00      0.000
12:10am           164          0          0         44         97       72.6       73.1      29.49       73.1        405        224       1429      -0.12       0.00       0.00      0.000
12:11am           164          0          0         44         97       72.6       73.0      29.48       73.0        406        224       1424      -0.22       0.00       0.00      0.000
12:12am           164          0          0         44         97       72.6       73.0      29.48       73.0        406        224       1425      -0.22       0.00       0.00      0.000
12:13am           164          0          0         44         97       72.6       73.1      29.48       73.1        406        224       1431      -0.11       0.00       0.00      0.000
12:14am           164          0          0         44         97       72.6       73.0      29.48       73.0        406        224       1424      -0.21       0.00       0.00      0.000
12:15am           164          0          0         44         97       72.4       73.0      29.48       73.0        406        224       1424      -0.21       0.00       0.00      0.000
12:16am           164          0          0         44         97       72.4       73.1      29.49       73.1        404        224       1428      -0.11       0.00       0.00      0.000
12:17am           164          0          0         44         97       72.4       73.0      29.49       73.0        403        224       1420      -0.20       0.00       0.00      0.000
12:18am           164          0          0         44         97       72.4       73.0      29.49       73.0        404        224       1421      -0.20       0.00       0.00      0.000
12:19am           164          0          0         44         97       72.4       73.1      29.49       73.1        403        224       1427      -0.10       0.00       0.00      0.000
12:20am           164          0          0         44         97       72.4       73.1      29.49       73.1        403        224       1427      -0.10       0.00       0.00      0.000
12:21am           164          0          0         44         97       72.4       73.0      29.49       73.0        404        224       1421      -0.19       0.00       0.00      0.000
12:22am           164          0          0         44         97       72.4       73.0      29.49       73.0        405        224       1423      -0.19       0.00       0.00      0.000
12:23am           164          0          0         44         97       72.4       73.1      29.48       73.1        406        224       1430      -0.09       0.00       0.00      0.000
12:24am           164          0          0         44         97       72.4       73.0      29.48       73.0        406        224       1424      -0.19       0.00       0.00      0.000
12:25am           164          0          0         44         97       72.4       73.1      29.48       73.1        406        224       1431      -0.08       0.00       0.00      0.000
12:26am           164          0          0         44         97       72.4       73.0      29.48       73.0        407        224       1426      -0.18       0.00       0.00      0.000
12:27am           164          0          0         44         97       72.4       73.0      29.48       73.0        407        224       1426      -0.18       0.00       0.00      0.000
12:28am           164          0          0         44         97       72.4       73.1      29.48       73.1        406        224       1431      -0.08       0.00       0.00      0.000
12:29am           164          0          0         44         97       72.4       73.0      29.48       73.0        407        224       1426      -0.18       0.00       0.00      0.000
12:30am           164          0          0         44         97       72.3       73.0      29.48       73.0        407        224       1426      -0.17       0.00       0.00      0.000
12:31am           164          0          0         44         97       72.4       73.1      29.48       73.1        407        224       1432      -0.07       0.00       0.00      0.000
12:32am           164          0          0         44         97       72.4       73.0      29.48       73.0        407        224       1426      -0.17       0.00       0.00      0.000
12:33am           164          0          0         44         97       72.4       73.0      29.48       73.0        407        224       1426      -0.16       0.00       0.00      0.000
12:34am           164          0          0         44         97       72.4       73.0      29.48       73.0        407        224       1426      -0.16       0.00       0.00      0.000
12:35am           164          0          0         44         97       72.4       73.0      29.48       73.0        407        224       1426      -0.16       0.00       0.00      0.000
12:36am           164          0          0         44         97       72.4       73.0      29.48       73.0        407        224       1426      -0.16       0.00       0.00      0.000
12:37am           164          0          0         44         97       72.4       73.0      29.48       73.0        407        224       1426      -0.15       0.00       0.00      0.000
12:38am           164          0          0         44         97       72.4       73.0      29.48       73.0        407        224       1426      -0.15       0.00       0.00      0.000
12:39am           164          0          0         44         97       72.4       73.0      29.48       73.0        407        224       1426      -0.15       0.00       0.00      0.000
12:40am           164          0          0         44         97       72.4       73.0      29.48       73.0        407        224       1426      -0.15       0.00       0.00      0.000
12:41am           164          0          0         44         97       72.4       72.9      29.48       72.9        407        224       1420      -0.24       0.00       0.00      0.000
12:42am           164          0          0         44         97       72.4       73.0      29.48       73.0        407        224       1426      -0.14       0.00       0.00      0.000
12:43am           164          0          0         44         97       72.4       72.9      29.48       72.9        407        224       1420      -0.24       0.00       0.00      0.000
12:44am           164          0          0         44         97       72.4       72.9      29.48       72.9        407        224       1420      -0.23       0.00       0.00      0.000
12:45am           164          0          0         44         97       72.4       72.9      29.48       72.9        408        224       1421      -0.23       0.00       0.00      0.000
12:46am           164          0          0         44         97       72.4       72.9      29.48       72.9        408        224       1421      -0.22       0.00       0.00      0.000
12:47am           164          0          0         44         97       72.4       72.9      29.48       72.9        408        224       1421      -0.22       0.00       0.00      0.000
12:48am           164          0          0         44         97       72.4       72.8      29.48       72.8        408        224       1414      -0.32       0.00       0.00      0.000
12:49am           164          0          0         44         97       72.4       72.8      29.48       72.8        408        224       1414      -0.31       0.00       0.00      0.000
12:50am           164          0          0         44         97       72.4       72.8      29.48       72.8        408        224       1414      -0.31       0.00       0.00      0.000
12:51am           164          0          0         44         97       72.4       72.8      29.48       72.8        408        224       1414      -0.30       0.00       0.00      0.000
12:52am           164          0          0         44         97       72.4       72.8      29.48       72.8        408        224       1414      -0.30       0.00       0.00      0.000
12:53am           164          0          0         44         97       72.4       72.8      29.48       72.8        408        224       1414      -0.29       0.00       0.00      0.000
12:54am           164          0          0         44         97       72.4       72.8      29.48       72.8        408        224       1414      -0.29       0.00       0.00      0.000
12:55am           164          0          0         44         97       72.4       72.7      29.48       72.7        408        224       1408      -0.38       0.00       0.00      0.000
12:56am           164          0          0         44         97       72.4       72.7      29.48       72.7        408        224       1408      -0.37       0.00       0.00      0.000
12:57am           164          0          0         44         97       72.4       72.7      29.48       72.7        408        224       1408      -0.37       0.00       0.00      0.000
12:58am           164          0          0         44         98       72.4       72.7      29.48       72.7        408        148       1408      -0.36       0.00       0.00      0.000
12:59am           164          0          0         44         97       72.4       72.7      29.48       72.7        408        224       1408      -0.36       0.00       0.00      0.000
1:00am            164          0          0         44         98       72.4       72.7      29.48       72.7        408        148       1408      -0.35       0.00       0.00      0.000
1:01am            164          0          0         44         98       72.4       72.7      29.48       72.7        408        148       1408      -0.34       0.00       0.00      0.000
1:02am            164          0          0         44         98       72.4       72.6      29.48       72.6        408        148       1402      -0.44       0.00       0.00      0.000
1:03am            164          0          0         44         98       72.4       72.6      29.48       72.6        408        148       1402      -0.43       0.00       0.00      0.000
1:04am            164          0          0         44         98       72.4       72.6      29.48       72.6        409        148       1403      -0.42       0.00       0.00      0.000
1:05am            164          0          0         44         98       72.4       72.6      29.48       72.6        409        148       1403      -0.42       0.00       0.00      0.000
1:06am            164          0          0         44         98       72.4       72.6      29.48       72.6        409        148       1403      -0.41       0.00       0.00      0.000
1:07am            164          0          0         44         98       72.4       72.6      29.48       72.6        409        148       1403      -0.41       0.00       0.00      0.000
1:08am            164          0          0         44         98       72.4       72.6      29.48       72.6        409        148       1403      -0.40       0.00       0.00      0.000
1:09am            164          0          0         44         98       72.4       72.7      29.48       72.7        410        148       1410      -0.29       0.00       0.00      0.000
1:10am            164          0          0         44         98       72.4       72.6      29.48       72.6        411        148       1405      -0.39       0.00       0.00      0.000
1:11am            164          0          0         44         98       72.4       72.6      29.48       72.6        411        148       1405      -0.38       0.00       0.00      0.000
1:12am            164          0          0         44         98       72.4       72.6      29.48       72.6        411        148       1405      -0.38       0.00       0.00      0.000
1:13am            164          0          0         44         98       72.4       72.6      29.48       72.6        410        148       1404      -0.37       0.00       0.00      0.000
1:14am            164          0          0         44         98       72.4       72.6      29.48       72.6        411        148       1405      -0.36       0.00       0.00      0.000
1:15am            164          0          0         44         98       72.4       72.6      29.48       72.6        411        148       1405      -0.36       0.00       0.00      0.000
1:16am            164          0          0         44         98       72.4       72.6      29.48       72.6        410        148       1404      -0.35       0.00       0.00      0.000
1:17am            164          0          0         44         98       72.4       72.6      29.48       72.6        411        148       1405      -0.35       0.00       0.00      0.000
1:18am            164          0          0         44         98       72.4       72.6      29.48       72.6        412        148       1406      -0.34       0.00       0.00      0.000
1:19am            164          0          0         44         98       72.4       72.6      29.48       72.6        413        148       1407      -0.34       0.00       0.00      0.000
1:20am            164          0          0         44         98       72.4       72.6      29.48       72.6        414        148       1408      -0.33       0.00       0.00      0.000
1:21am            164          0          0         44         98       72.4       72.6      29.48       72.6        414        148       1408      -0.33       0.00       0.00      0.000
1:22am            164          0          0         44         98       72.4       72.6      29.47       72.6        415        148       1410      -0.32       0.00       0.00      0.000
1:23am            164          0          0         44         98       72.4       72.6      29.47       72.6        416        148       1411      -0.31       0.00       0.00      0.000
1:24am            164          0          0         44         98       72.4       72.5      29.47       72.5        416        148       1404      -0.41       0.00       0.00      0.000
1:25am            164          0          0         44         98       72.4       72.6      29.47       72.6        415        148       1410      -0.30       0.00       0.00      0.000
1:26am            164          0          0         44         98       72.4       72.5      29.47       72.5        416        148       1404      -0.40       0.00       0.00      0.000
1:27am            164          0          0         44         98       72.4       72.5      29.47       72.5        416        148       1404      -0.39       0.00       0.00      0.000
1:28am            164          0          0         44         98       72.4       72.5      29.47       72.5        417        148       1405      -0.39       0.00       0.00      0.000
1:29am            164          0          0         44         98       72.4       72.5      29.47       72.5        417        148       1405      -0.38       0.00       0.00      0.000
1:30am            164          0          0         44         98       72.4       72.5      29.47       72.5        416        148       1404      -0.37       0.00       0.00      0.000
1:31am            164          0          0         44         98       72.6       72.5      29.47       72.5        418        148       1407      -0.37       0.00       0.00      0.000
1:32am            164          0          0         44         98       72.6       72.4      29.47       72.4        418        148       1401      -0.46       0.00       0.00      0.000
1:33am            164          0          0         44         98       72.6       72.4      29.47       72.4        419        148       1402      -0.45       0.00       0.00      0.000
1:34am            164          0          0         44         98       72.6       72.4      29.47       72.4        419        148       1402      -0.45       0.00       0.00      0.000
1:35am            164          0          0         44         98       72.6       72.5      29.47       72.5        419        148       1409      -0.34       0.00       0.00      0.000
1:36am            164          0          0         44         98       72.6       72.4      29.47       72.4        419        148       1402      -0.43       0.00       0.00      0.000
1:37am            164          0          0         44         98       72.6       72.4      29.47       72.4        419        148       1402      -0.43       0.00       0.00      0.000
1:38am            164          0          0         44         98       72.6       72.5      29.47       72.5        419        148       1409      -0.32       0.00       0.00      0.000
1:39am            164          0          0         44         98       72.6       72.4      29.47       72.4        420        148       1404      -0.41       0.00       0.00      0.000
1:40am            164          0          0         44         98       72.6       72.5      29.47       72.5        420        148       1410      -0.31       0.00       0.00      0.000
1:41am            164          0          0         44         98       72.6       72.5      29.47       72.5        420        148       1410      -0.30       0.00       0.00      0.000
1:42am            164          0          0         44         98       72.6       72.5      29.47       72.5        420        148       1410      -0.30       0.00       0.00      0.000
1:43am            164          0          0         44         98       72.6       72.4      29.47       72.4        421        148       1405      -0.39       0.00       0.00      0.000
1:44am            164          0          0         44         98       72.6       72.4      29.47       72.4        421        148       1405      -0.38       0.00       0.00      0.000
1:45am            164          0          0         44         98       72.6       72.4      29.47       72.4        421        148       1405      -0.38       0.00       0.00      0.000
1:46am            164          0          0         44         98       72.6       72.4      29.47       72.4        421        148       1405      -0.37       0.00       0.00      0.000
1:47am            164          0          0         44         98       72.4       72.4      29.47       72.4        421        148       1405      -0.37       0.00       0.00      0.000
1:48am            164          0          0         44         98       72.4       72.4      29.47       72.4        422        148       1406      -0.36       0.00       0.00      0.000
1:49am            164          0          0         44         98       72.4       72.4      29.47       72.4        421        148       1405      -0.35       0.00       0.00      0.000
1:50am            164          0          0         44         98       72.4       72.4      29.47       72.4        421        148       1405      -0.35       0.00       0.00      0.000
1:51am            164          0          0         45         98       72.4       72.3      29.47       72.3        422        148       1399      -0.44       0.00       0.00      0.000
1:52am            164          0          0         44         98       72.4       72.3      29.47       72.3        422        148       1399      -0.43       0.00       0.00      0.000
1:53am            164          0          0         44         98       72.4       72.3      29.47       72.3        422        148       1399      -0.43       0.00       0.00      0.000
1:54am            164          0          0         44         98       72.4       72.3      29.47       72.3        422        148       1399      -0.42       0.00       0.00      0.000
1:55am            164          0          0         44         98       72.4       72.3      29.47       72.3        422        148       1399      -0.41       0.00       0.00      0.000
1:56am            164          0          0         44         98       72.4       72.3      29.47       72.3        422        148       1399      -0.41       0.00       0.00      0.000
1:57am            164          0          0         44         98       72.4       72.3      29.47       72.3        422        148       1399      -0.40       0.00       0.00      0.000
1:58am            164          0          0         44         98       72.4       72.2      29.47       72.2        422        148       1393      -0.49       0.00       0.00      0.000
1:59am            164          0          0         44         98       72.4       72.2      29.47       72.2        422        148       1393      -0.48       0.00       0.00      0.000
2:00am            164          0          0         44         98       72.4       72.2      29.47       72.2        421        148       1392      -0.47       0.00       0.00      0.000
2:01am            164          0          0         44         98       72.4       72.1      29.47       72.1        421        148       1386      -0.57       0.00       0.00      0.000
2:02am            164          0          0         44         98       72.4       72.2      29.47       72.2        421        148       1392      -0.46       0.00       0.00      0.000
2:03am            164          0          0         44         98       72.4       72.2      29.47       72.2        421        148       1392      -0.45       0.00       0.00      0.000
2:04am            164          0          0         44         98       72.4       72.2      29.47       72.2        421        148       1392      -0.44       0.00       0.00      0.000
2:05am            164          0          0         44         98       72.4       72.1      29.47       72.1        421        148       1386      -0.53       0.00       0.00      0.000
2:06am            164          0          0         44         98       72.4       72.1      29.47       72.1        421        148       1386      -0.52       0.00       0.00      0.000
2:07am            164          0          0         44         98       72.4       72.1      29.47       72.1        421        148       1386      -0.52       0.00       0.00      0.000
2:08am            164          0          0         44         98       72.4       72.1      29.47       72.1        421        148       1386      -0.51       0.00       0.00      0.000
2:09am            164          0          0         44         98       72.4       72.1      29.47       72.1        421        148       1386      -0.50       0.00       0.00      0.000
2:10am            164          0          0         44         98       72.6       72.1      29.47       72.1        421        148       1386      -0.49       0.00       0.00      0.000
2:11am            164          0          0         44         98       72.6       72.1      29.47       72.1        421        148       1386      -0.48       0.00       0.00      0.000
2:12am            164          0          0         44         98       72.6       72.0      29.47       72.0        421        148       1379      -0.57       0.00       0.00      0.000
2:13am            164          0          0         44         98       72.6       72.0      29.47       72.0        421        148       1379      -0.56       0.00       0.00      0.000
2:14am            164          0          0         44         98       72.6       72.1      29.47       72.1        422        148       1387      -0.45       0.00       0.00      0.000
2:15am            164          0          0         44         99       72.6       72.0      29.47       72.0        422         73       1380      -0.55       0.00       0.00      0.000
2:16am            164          0          0         44         99       72.6       72.0      29.47       72.0        422         73       1380      -0.54       0.00       0.00      0.000
2:17am            164          0          0         44         99       72.6       72.1      29.47       72.1        422         73       1387      -0.43       0.00       0.00      0.000
2:18am            164          0          0         44         99       72.6       72.1      29.47       72.1        422         73       1387      -0.42       0.00       0.00      0.000
2:19am            164          0          0         44         99       72.6       72.2      29.47       72.2        423         73       1394      -0.32       0.00       0.00      0.000
2:20am            164          0          0         44         99       72.6       72.2      29.47       72.2        423         73       1394      -0.31       0.00       0.00      0.000
2:21am            164          0          0         44         99       72.6       72.2      29.47       72.2        423         73       1394      -0.31       0.00       0.00      0.000
2:22am            164          0          0         45         99       72.6       72.2      29.47       72.2        423         73       1394      -0.30       0.00       0.00      0.000
2:23am            164          0          0         44         99       72.6       72.2      29.47       72.2        423         73       1394      -0.30       0.00       0.00      0.000
2:24am            164          0          0         44         99       72.6       72.2      29.47       72.2        423         73       1394      -0.29       0.00       0.00      0.000
2:25am            164          0          0         44         99       72.6       72.2      29.47       72.2        423         73       1394      -0.29       0.00       0.00      0.000
2:26am            164          0          0         44         99       72.6       72.2      29.47       72.2        423         73       1394      -0.28       0.00       0.00      0.000
2:27am            164          0          0         44         99       72.6       72.3      29.47       72.3        423         73       1401      -0.18       0.00       0.00      0.000
2:28am            164          0          0         44         99       72.6       72.3      29.47       72.3        422         73       1399      -0.17       0.00       0.00      0.000
2:29am            164          0          0         44         99       72.6       72.3      29.47       72.3        423         73       1401      -0.17       0.00       0.00      0.000
2:30am            164          0          0         44         99       72.4       72.3      29.47       72.3        423         73       1401      -0.17       0.00       0.00      0.000
2:31am            164          0          0         44         99       72.4       72.3      29.47       72.3        423         73       1401      -0.17       0.00       0.00      0.000
2:32am            164          0          0         44         99       72.4       72.3      29.46       72.3        424         73       1402      -0.16       0.00       0.00      0.000
2:33am            164          0          0         44         99       72.4       72.3      29.46       72.3        424         73       1402      -0.16       0.00       0.00      0.000
2:34am            164          0          0         44         99       72.4       72.3      29.46       72.3        424         73       1402      -0.16       0.00       0.00      0.000
2:35am            164          0          0         44         99       72.4       72.3      29.46       72.3        424         73       1402      -0.16       0.00       0.00      0.000
2:36am            164          0          0         44         99       72.4       72.3      29.46       72.3        424         73       1402      -0.15       0.00       0.00      0.000
2:37am            164          0          0         44         99       72.4       72.3      29.46       72.3        424         73       1402      -0.15       0.00       0.00      0.000
2:38am            164          0          0         44         99       72.4       72.3      29.47       72.3        423         73       1401      -0.15       0.00       0.00      0.000
2:39am            164          0          0         44         99       72.4       72.4      29.46       72.4        424         73       1408      -0.05       0.00       0.00      0.000
2:40am            164          0          0         44         99       72.4       72.4      29.46       72.4        424         73       1408      -0.05       0.00       0.00      0.000
2:41am            164          0          0         44         99       72.4       72.4      29.46       72.4        424         73       1408      -0.04       0.00       0.00      0.000
2:42am            164          0          0         44         99       72.4       72.4      29.46       72.4        424         73       1408      -0.04       0.00       0.00      0.000
2:43am            164          0          0         44         99       72.4       72.4      29.46       72.4        425         73       1409      -0.04       0.00       0.00      0.000
2:44am            164          0          0         44         99       72.4       72.5      29.46       72.5        425         73       1416       0.06       0.00       0.00      0.000
2:45am            164          0          0         44         99       72.4       72.5      29.46       72.5        425         73       1416       0.06       0.00       0.00      0.000
2:46am            164          0          0         44         99       72.4       72.5      29.46       72.5        426         73       1417       0.06       0.00       0.00      0.000
2:47am            164          0          0         44         99       72.4       72.6      29.46       72.6        427         73       1424       0.15       0.00       0.00      0.000
2:48am            164          0          0         44         99       72.4       72.5      29.46       72.5        428         73       1419       0.05       0.00       0.00      0.000
2:49am            164          0          0         44         99       72.6       72.5      29.46       72.5        429         73       1420       0.05       0.00       0.00      0.000
2:50am            164          0          0         44         99       72.6       72.5      29.46       72.5        430         73       1422       0.05       0.00       0.00      0.000
2:51am            164          0          0         44         99       72.6       72.6      29.46       72.6        431         73       1430       0.15       0.00       0.00      0.000
2:52am            164          0          0         44         99       72.6       72.5      29.45       72.5        433         73       1426       0.05       0.00       0.00      0.000
2:53am            164          0          0         44         99       72.6       72.5      29.45       72.5        434         73       1427       0.04       0.00       0.00      0.000
2:54am            164          0          0         44         99       72.6       72.6      29.45       72.6        434         73       1433       0.14       0.00       0.00      0.000
2:55am            164          0          0         44         99       72.6       72.5      29.45       72.5        434         73       1427       0.04       0.00       0.00      0.000
2:56am            164          0          0         44         99       72.6       72.5      29.45       72.5        434         73       1427       0.04       0.00       0.00      0.000
2:57am            164          0          0         44         99       72.6       72.5      29.45       72.5        435         73       1428       0.04       0.00       0.00      0.000
2:58am            164          0          0         44         99       72.6       72.5      29.45       72.5        435         73       1428       0.04       0.00       0.00      0.000
2:59am            164          0          0         44         99       72.6       72.5      29.45       72.5        435         73       1428       0.04       0.00       0.00      0.000
3:00am            164          0          0         44         99       72.6       72.4      29.45       72.4        436         73       1423      -0.06       0.00       0.00      0.000
3:01am            164          0          0         44         99       72.6       72.4      29.45       72.4        436         73       1423      -0.06       0.00       0.00      0.000
3:02am            164          0          0         44         99       72.6       72.4      29.45       72.4        436         73       1423      -0.06       0.00       0.00      0.000
3:03am            164          0          0         44         99       72.6       72.4      29.45       72.4        436         73       1423      -0.06       0.00       0.00      0.000
3:04am            164          0          0         44         99       72.6       72.4      29.45       72.4        436         73       1423      -0.06       0.00       0.00      0.000
3:05am            164          0          0         44         99       72.6       72.4      29.45       72.4        436         73       1423      -0.06       0.00       0.00      0.000
3:06am            164          0          0         44         99       72.6       72.4      29.45       72.4        436         73       1423      -0.05       0.00       0.00      0.000
3:07am            164          0          0         44         99       72.6       72.3      29.45       72.3        436         73       1416      -0.15       0.00       0.00      0.000
3:08am            164          0          0         44         99       72.6       72.3      29.45       72.3        436         73       1416      -0.15       0.00       0.00      0.000
3:09am            164          0          0         44         99       72.6       72.3      29.45       72.3        436         73       1416      -0.15       0.00       0.00      0.000
3:10am            164          0          0         44         99       72.6       72.3      29.45       72.3        436         73       1416      -0.15       0.00       0.00      0.000
3:11am            164          0          0         44         99       72.6       72.2      29.45       72.2        436         73       1410      -0.24       0.00       0.00      0.000
3:12am            164          0          0         44         99       72.6       72.2      29.45       72.2        436         73       1410      -0.24       0.00       0.00      0.000
3:13am            164          0          0         44         99       72.6       72.2      29.45       72.2        436         73       1410      -0.23       0.00       0.00      0.000
3:14am            164          0          0         44         99       72.6       72.2      29.45       72.2        436         73       1410      -0.23       0.00       0.00      0.000
3:15am            164          0          0         44         99       72.6       72.2      29.45       72.2        437         73       1411      -0.23       0.00       0.00      0.000
3:16am            164          0          0         44         99       72.6       72.1      29.45       72.1        437         73       1405      -0.32       0.00       0.00      0.000
3:17am            164          0          0         44         99       72.6       72.2      29.45       72.2        436         73       1410      -0.22       0.00       0.00      0.000
3:18am            164          0          0         44         99       72.6       72.2      29.45       72.2        436         73       1410      -0.21       0.00       0.00      0.000
3:19am            164          0          0         44         99       72.6       72.2      29.45       72.2        436         73       1410      -0.21       0.00       0.00      0.000
3:20am            164          0          0         44         99       72.6       72.1      29.45       72.1        436         73       1404      -0.31       0.00       0.00      0.000
3:21am            164          0          0         44         99       72.6       72.1      29.45       72.1        436         73       1404      -0.30       0.00       0.00      0.000
3:22am            164          0          0         44         99       72.6       72.1      29.45       72.1        436         73       1404      -0.30       0.00       0.00      0.000
3:23am            164          0          0         44         99       72.6       72.1      29.45       72.1        436         73       1404      -0.29       0.00       0.00      0.000
3:24am            164          0          0         44         99       72.6       72.1      29.45       72.1        437         73       1405      -0.29       0.00       0.00      0.000
3:25am            164          0          0         44         99       72.6       72.1      29.45       72.1        437         73       1405      -0.28       0.00       0.00      0.000
3:26am            164          0          0         44         99       72.6       72.1      29.45       72.1        437         73       1405      -0.28       0.00       0.00      0.000
3:27am            164          0          0         44         99       72.6       72.1      29.45       72.1        437         73       1405      -0.27       0.00       0.00      0.000
3:28am            164          0          0         44         99       72.6       72.1      29.45       72.1        437         73       1405      -0.27       0.00       0.00      0.000
3:29am            164          0          0         44         99       72.6       72.1      29.45       72.1        437         73       1405      -0.26       0.00       0.00      0.000
3:30am            164          0          0         44         99       72.6       72.0      29.45       72.0        437         73       1398      -0.36       0.00       0.00      0.000
3:31am            164          0          0         44         99       72.6       72.1      29.45       72.1        437         73       1405      -0.25       0.00       0.00      0.000
3:32am            164          0          0         44         99       72.6       72.1      29.45       72.1        437         73       1405      -0.25       0.00       0.00      0.000
3:33am            164          0          0         44         99       72.6       72.1      29.45       72.1        437         73       1405      -0.24       0.00       0.00      0.000
3:34am            164          0          0         44         99       72.6       72.1      29.45       72.1        438         73       1406      -0.24       0.00       0.00      0.000
3:35am            164          0          0         44         99       72.6       72.1      29.45       72.1        438         73       1406      -0.24       0.00       0.00      0.000
3:36am            164          0          0         44         99       72.6       72.1      29.45       72.1        439         73       1407      -0.23       0.00       0.00      0.000
3:37am            164          0          0         44         99       72.6       72.1      29.45       72.1        440         73       1408      -0.23       0.00       0.00      0.000
3:38am            164          0          0         44         99       72.6       72.1      29.45       72.1        441         73       1409      -0.22       0.00       0.00      0.000
3:39am            164          0          0         44         99       72.6       72.2      29.45       72.2        440         73       1415      -0.12       0.00       0.00      0.000
3:40am            164          0          0         44         99       72.6       72.1      29.45       72.1        441         73       1409      -0.22       0.00       0.00      0.000
3:41am            164          0          0         44         99       72.6       72.0      29.45       72.0        441         73       1403      -0.31       0.00       0.00      0.000
3:42am            164          0          0         44         99       72.6       72.1      29.45       72.1        440         73       1408      -0.21       0.00       0.00      0.000
3:43am            164          0          0         44         99       72.6       72.1      29.45       72.1        441         73       1409      -0.21       0.00       0.00      0.000
3:44am            164          0          0         44         99       72.6       72.1      29.45       72.1        441         73       1410      -0.20       0.00       0.00      0.000
3:45am            164          0          0         44         99       72.6       72.1      29.45       72.1        441         73       1410      -0.20       0.00       0.00      0.000
3:46am            164          0          0         44         99       72.8       72.0      29.44       72.0        442         73       1405      -0.30       0.00       0.00      0.000
3:47am            164          0          0         44         99       72.8       72.1      29.44       72.1        442         73       1412      -0.19       0.00       0.00      0.000
3:48am            164          0          0         44         99       72.8       72.0      29.44       72.0        442         73       1405      -0.29       0.00       0.00      0.000
3:49am            164          0          0         44         99       72.8       72.1      29.44       72.1        442         73       1412      -0.19       0.00       0.00      0.000
3:50am            164          0          0         44         99       72.8       72.1      29.44       72.1        444         73       1414      -0.18       0.00       0.00      0.000
3:51am            164          0          0         44         99       72.8       72.1      29.44       72.1        444         73       1414      -0.18       0.00       0.00      0.000
3:52am            164          0          0         44         99       72.8       72.1      29.44       72.1        444         73       1414      -0.18       0.00       0.00      0.000
3:53am            164          0          0         44        100       72.8       72.1      29.44       72.1        445          0       1415      -0.17       0.00       0.00      0.000
3:54am            164          0          0         44        100       72.8       72.1      29.44       72.1        445          0       1415      -0.17       0.00       0.00      0.000
3:55am            164          0          0         44         99       72.8       72.2      29.44       72.2        445         73       1421      -0.07       0.00       0.00      0.000
3:56am            164          0          0         44         99       72.8       72.2      29.44       72.2        445         73       1421      -0.07       0.00       0.00      0.000
3:57am            164          0          0         44         99       72.8       72.2      29.44       72.2        445         73       1421      -0.07       0.00       0.00      0.000
3:58am            164          0          0         44         99       72.8       72.2      29.44       72.2        444         73       1420      -0.06       0.00       0.00      0.000
3:59am            164          0          0         44         99       72.8       72.2      29.44       72.2        444         73       1420      -0.06       0.00       0.00      0.000
4:00am            164          0          0         44         99       72.8       72.2      29.44       72.2        443         73       1419      -0.06       0.00       0.00      0.000
4:01am            164          0          0         44         99       72.8       72.2      29.44       72.2        443         73       1419      -0.06       0.00       0.00      0.000
4:02am            164          0          0         44         99       72.6       72.3      29.44       72.3        444         73       1427       0.04       0.00       0.00      0.000
4:03am            164          0          0         44         99       72.6       72.2      29.44       72.2        444         73       1420      -0.06       0.00       0.00      0.000
4:04am            164          0          0         44         99       72.6       72.3      29.44       72.3        445         73       1428       0.04       0.00       0.00      0.000
4:05am            164          0          0         44         99       72.6       72.3      29.44       72.3        444         73       1427       0.04       0.00       0.00      0.000
4:06am            164          0          0         44         99       72.6       72.3      29.44       72.3        443         73       1425       0.04       0.00       0.00      0.000
4:07am            164          0          0         44         99       72.6       72.3      29.44       72.3        444         73       1427       0.04       0.00       0.00      0.000
4:08am            164          0          0         45         99       72.6       72.3      29.44       72.3        444         73       1427       0.04       0.00       0.00      0.000
4:09am            164          0          0         44         99       72.6       72.3      29.44       72.3        444         73       1427       0.04       0.00       0.00      0.000
4:10am            164          0          0         44         99       72.6       72.3      29.44       72.3        444         73       1427       0.04       0.00       0.00      0.000
4:11am            164          0          0         44         99       72.6       72.3      29.44       72.3        444         73       1427       0.04       0.00       0.00      0.000
4:12am            164          0          0         44         99       72.6       72.3      29.44       72.3        444         73       1427       0.03       0.00       0.00      0.000
4:13am            164          0          0         44         99       72.6       72.3      29.44       72.3        444         73       1427       0.03       0.00       0.00      0.000
4:14am            164          0          0         44         99       72.6       72.3      29.44       72.3        444         73       1427       0.03       0.00       0.00      0.000
4:15am            164          0          0         44         99       72.6       72.4      29.44       72.4        444         73       1433       0.13       0.00       0.00      0.000
4:16am            164          0          0         44         99       72.6       72.3      29.44       72.3        444         73       1427       0.03       0.00       0.00      0.000
4:17am            164          0          0         44         99       72.6       72.4      29.44       72.4        443         73       1432       0.13       0.00       0.00      0.000
4:18am            164          0          0         44         99       72.6       72.3      29.45       72.3        441         73       1423       0.03       0.00       0.00      0.000
4:19am            164          0          0         44         99       72.6       72.3      29.45       72.3        441         73       1422       0.03       0.00       0.00      0.000
4:20am            164          0          0         44         99       72.6       72.3      29.45       72.3        440         73       1421       0.03       0.00       0.00      0.000
4:21am            164          0          0         44         99       72.6       72.3      29.45       72.3        439         73       1420       0.03       0.00       0.00      0.000
4:22am            164          0          0         44         99       72.6       72.3      29.45       72.3        438         73       1419       0.03       0.00       0.00      0.000
4:23am            164          0          0         44         99       72.8       72.3      29.45       72.3        438         73       1419       0.03       0.00       0.00      0.000
4:24am            164          0          0         44         99       72.8       72.3      29.45       72.3        438         73       1419       0.03       0.00       0.00      0.000
4:25am            164          0          0         44         99       72.8       72.2      29.45       72.2        438         73       1412      -0.07       0.00       0.00      0.000
4:26am            164          0          0         44         99       72.8       72.2      29.45       72.2        437         73       1411      -0.07       0.00       0.00      0.000
4:27am            164          0          0         44         99       72.8       72.3      29.45       72.3        437         73       1418       0.03       0.00       0.00      0.000
4:28am            164          0          0         44         99       72.8       72.2      29.45       72.2        437         73       1411      -0.07       0.00       0.00      0.000
4:29am            164          0          0         44         99       72.8       72.2      29.45       72.2        437         73       1411      -0.07       0.00       0.00      0.000
4:30am            164          0          0         44         99       72.8       72.2      29.45       72.2        437         73       1411      -0.07       0.00       0.00      0.000
4:31am            164          0          0         44         99       72.8       72.2      29.45       72.2        436         73       1410      -0.07       0.00       0.00      0.000
4:32am            164          0          0         44         99       72.8       72.2      29.45       72.2        436         73       1410      -0.07       0.00       0.00      0.000
4:33am            164          0          0         44         99       72.8       72.2      29.45       72.2        436         73       1410      -0.07       0.00       0.00      0.000
4:34am            164          0          0         44         99       72.8       72.2      29.45       72.2        436         73       1410      -0.06       0.00       0.00      0.000
4:35am            164          0          0         44         99       72.8       72.2      29.45       72.2        436         73       1410      -0.06       0.00       0.00      0.000
4:36am            164          0          0         44         99       72.8       72.2      29.45       72.2        436         73       1410      -0.06       0.00       0.00      0.000
4:37am            164          0          0         44         99       72.8       72.2      29.45       72.2        436         73       1410      -0.06       0.00       0.00      0.000
4:38am            164          0          0         44         99       72.8       72.1      29.45       72.1        436         73       1404      -0.16       0.00       0.00      0.000
4:39am            164          0          0         44         99       72.8       72.1      29.45       72.1        436         73       1404      -0.16       0.00       0.00      0.000
4:40am            164          0          0         44         99       72.8       72.2      29.45       72.2        436         73       1410      -0.06       0.00       0.00      0.000
4:41am            164          0          0         44        100       73.0       72.2      29.45       72.2        437          0       1411      -0.06       0.00       0.00      0.000
4:42am            164          0          0         44         99       73.0       72.2      29.45       72.2        437         73       1411      -0.05       0.00       0.00      0.000
4:43am            164          0          0         44         99       72.8       72.2      29.45       72.2        437         73       1411      -0.05       0.00       0.00      0.000
4:44am            164          0          0         44         99       72.8       72.2      29.45       72.2        437         73       1411      -0.05       0.00       0.00      0.000
4:45am            164          0          0         44        100       72.8       72.2      29.45       72.2        437          0       1411      -0.05       0.00       0.00      0.000
4:46am            164          0          0         44        100       72.8       72.3      29.45       72.3        437          0       1418       0.05       0.00       0.00      0.000
4:47am            164          0          0         44        100       72.8       72.3      29.45       72.3        438          0       1419       0.05       0.00       0.00      0.000
4:48am            164          0          0         44        100       72.8       72.2      29.45       72.2        438          0       1412      -0.05       0.00       0.00      0.000
4:49am            164          0          0         44        100       72.8       72.2      29.45       72.2        438          0       1412      -0.05       0.00       0.00      0.000
4:50am            164          0          0         44        100       72.8       72.2      29.45       72.2        438          0       1412      -0.05       0.00       0.00      0.000
4:51am            164          0          0         44        100       72.8       72.3      29.45       72.3        438          0       1419       0.05       0.00       0.00      0.000
4:52am            164          0          0         44         99       72.8       72.2      29.45       72.2        437         73       1411      -0.05       0.00       0.00      0.000
4:53am            164          0          0         44        100       72.8       72.2      29.45       72.2        437          0       1411      -0.05       0.00       0.00      0.000
4:54am            164          0          0         44         99       72.8       72.3      29.45       72.3        437         73       1418       0.05       0.00       0.00      0.000
4:55am            164          0          0         44         99       72.8       72.2      29.45       72.2        437         73       1411      -0.05       0.00       0.00      0.000
4:56am            164          0          0         44         99       72.8       72.2      29.45       72.2        437         73       1411      -0.05       0.00       0.00      0.000
4:57am            164          0          0         44         99       72.8       72.2      29.45       72.2        437         73       1411      -0.05       0.00       0.00      0.000
4:58am            164          0          0         44         99       72.6       72.3      29.45       72.3        437         73       1418       0.05       0.00       0.00      0.000
4:59am            164          0          0         44        100       72.6       72.2      29.45       72.2        437          0       1411      -0.05       0.00       0.00      0.000
5:00am            164          0          0         44         99       72.6       72.2      29.45       72.2        438         73       1412      -0.05       0.00       0.00      0.000
5:01am            164          0          0         44        100       72.8       72.2      29.45       72.2        438          0       1412      -0.05       0.00       0.00      0.000
5:02am            164          0          0         44        100       72.6       72.2      29.45       72.2        438          0       1412      -0.05       0.00       0.00      0.000
5:03am            164          0          0         44        100       72.6       72.2      29.45       72.2        440          0       1415      -0.05       0.00       0.00      0.000
5:04am            164          0          0         44        100       72.8       72.2      29.45       72.2        440          0       1415      -0.05       0.00       0.00      0.000
5:05am            164          0          0         44        100       72.8       72.2      29.45       72.2        441          0       1416      -0.04       0.00       0.00      0.000
5:06am            164          0          0         44        100       72.8       72.2      29.45       72.2        441          0       1416      -0.04       0.00       0.00      0.000
5:07am            164          0          0         44        100       72.8       72.2      29.44       72.2        442          0       1418      -0.04       0.00       0.00      0.000
5:08am            164          0          0         44        100       72.8       72.2      29.45       72.2        441          0       1417      -0.04       0.00       0.00      0.000
5:09am            164          0          0         44        100       72.8       72.2      29.44       72.2        442          0       1418      -0.04       0.00       0.00      0.000
5:10am            164          0          0         44        100       72.8       72.2      29.44       72.2        444          0       1420      -0.04       0.00       0.00      0.000
5:11am            164          0          0         44        100       72.8       72.3      29.44       72.3        444          0       1427       0.06       0.00       0.00      0.000
5:12am            164          0          0         44        100       72.8       72.2      29.44       72.2        444          0       1420      -0.04       0.00       0.00      0.000
5:13am            164          0          0         44        100       72.8       72.2      29.44       72.2        445          0       1421      -0.04       0.00       0.00      0.000
5:14am            164          0          0         44         99       72.8       72.2      29.44       72.2        443         73       1419      -0.04       0.00       0.00      0.000
5:15am            164          0          0         44        100       72.8       72.2      29.44       72.2        443          0       1419      -0.04       0.00       0.00      0.000
5:16am            164          0          0         44        100       72.8       72.2      29.44       72.2        443          0       1419      -0.04       0.00       0.00      0.000
5:17am            164          0          0         44        100       72.8       72.2      29.44       72.2        442          0       1418      -0.04       0.00       0.00      0.000
5:18am            164          0          0         44        100       72.8       72.2      29.44       72.2        442          0       1418      -0.04       0.00       0.00      0.000
5:19am            164          0          0         44        100       72.8       72.2      29.44       72.2        443          0       1419      -0.04       0.00       0.00      0.000
5:20am            164          0          0         44        100       72.8       72.2      29.44       72.2        444          0       1420      -0.04       0.00       0.00      0.000
5:21am            164          0          0         44        100       72.8       72.2      29.44       72.2        445          0       1421      -0.04       0.00       0.00      0.000
5:22am            164          0          0         44        100       72.8       72.1      29.44       72.1        445          0       1415      -0.13       0.00       0.00      0.000
5:23am            164          0          0         44        100       72.8       72.1      29.44       72.1        448          0       1418      -0.13       0.00       0.00      0.000
5:24am            164          0          0         44        100       72.8       72.2      29.44       72.2        448          0       1425      -0.03       0.00       0.00      0.000
5:25am            164          0          0         44        100       72.8       72.1      29.44       72.1        449          0       1420      -0.13       0.00       0.00      0.000
5:26am            164          0          0         44        100       72.8       72.1      29.44       72.1        449          0       1420      -0.13       0.00       0.00      0.000
5:27am            164          0          0         44        100       73.0       72.1      29.44       72.1        449          0       1420      -0.13       0.00       0.00      0.000
5:28am            164          0          0         44        100       73.0       72.1      29.44       72.1        450          0       1421      -0.12       0.00       0.00      0.000
5:29am            164          0          0         44        100       73.0       72.0      29.44       72.0        450          0       1414      -0.22       0.00       0.00      0.000
5:30am            164          0          0         44        100       73.0       72.0      29.44       72.0        451          0       1415      -0.22       0.00       0.00      0.000
5:31am            164          0          0         44        100       73.0       72.0      29.44       72.0        451          0       1415      -0.21       0.00       0.00      0.000
5:32am            164          0          0         44        100       73.0       72.0      29.44       72.0        451          0       1415      -0.21       0.00       0.00      0.000
5:33am            164          0          0         44        100       73.0       72.0      29.44       72.0        451          0       1415      -0.21       0.00       0.00      0.000
5:34am            164          0          0         44        100       73.0       72.0      29.44       72.0        451          0       1415      -0.20       0.00       0.00      0.000
5:35am            164          0          0         44        100       73.0       72.0      29.44       72.0        451          0       1415      -0.20       0.00       0.00      0.000
5:36am            164          0          0         44        100       73.0       72.0      29.44       72.0        451          0       1415      -0.20       0.00       0.00      0.000
5:37am            164          0          0         44        100       73.0       72.0      29.44       72.0        451          0       1415      -0.19       0.00       0.00      0.000
5:38am            164          0          0         44        100       73.0       72.0      29.44       72.0        450          0       1414      -0.19       0.00       0.00      0.000
5:39am            164          0          0         44        100       73.0       72.0      29.44       72.0        450          0       1414      -0.19       0.00       0.00      0.000
5:40am            164          0          0         44        100       73.0       72.0      29.44       72.0        450          0       1414      -0.18       0.00       0.00      0.000
5:41am            164          0          0         44        100       73.0       71.9      29.44       71.9        451          0       1409      -0.28       0.00       0.00      0.000
5:42am            164          0          0         44        100       73.0       71.9      29.44       71.9        451          0       1409      -0.27       0.00       0.00      0.000
5:43am            164          0          0         44        100       73.0       71.9      29.44       71.9        451          0       1409      -0.27       0.00       0.00      0.000
5:44am            164          0          0         44        100       73.0       71.8      29.44       71.8        451          0       1403      -0.36       0.00       0.00      0.000
5:45am            164          0          0         44        100       73.0       71.8      29.43       71.8        452          0       1404      -0.36       0.00       0.00      0.000
5:46am            164          0          0         44         99       73.0       71.8      29.43       71.8        452         73       1404      -0.35       0.00       0.00      0.000
5:47am            164          0          0         44         99       72.8       71.8      29.43       71.8        452         73       1404      -0.35       0.00       0.00      0.000
5:48am            164          0          0         44         99       72.8       71.8      29.43       71.8        452         73       1404      -0.34       0.00       0.00      0.000
5:49am            164          0          0         44         99       72.8       71.7      29.43       71.7        452         73       1397      -0.43       0.00       0.00      0.000
5:50am            164          0          0         44         99       72.8       71.7      29.43       71.7        452         73       1397      -0.43       0.00       0.00      0.000
5:51am            164          0          0         44         99       72.8       71.7      29.43       71.7        452         73       1397      -0.42       0.00       0.00      0.000
5:52am            164          0          0         44         99       72.8       71.7      29.43       71.7        452         73       1397      -0.41       0.00       0.00      0.000
5:53am            164          0          0         44         99       72.8       71.7      29.43       71.7        452         73       1397      -0.40       0.00       0.00      0.000
5:54am            164          0          0         44         99       72.8       71.6      29.43       71.6        452         73       1391      -0.50       0.00       0.00      0.000
5:55am            164          0          0         44         99       72.8       71.6      29.43       71.6        452         73       1391      -0.49       0.00       0.00      0.000
5:56am            164          0          0         44         99       72.8       71.6      29.43       71.6        452         73       1391      -0.48       0.00       0.00      0.000
5:57am            164          0          0         44        100       72.8       71.6      29.43       71.6        452          0       1391      -0.47       0.00       0.00      0.000
5:58am            164          0          0         44        100       72.8       71.6      29.44       71.6        451          0       1390      -0.46       0.00       0.00      0.000
5:59am            164          0          0         44        100       72.8       71.6      29.44       71.6        451          0       1390      -0.46       0.00       0.00      0.000
6:00am            164          0          0         44        100       72.8       71.6      29.44       71.6        451          0       1390      -0.45       0.00       0.00      0.000
6:01am            164          0          0         44        100       72.8       71.6      29.44       71.6        451          0       1390      -0.44       0.00       0.00      0.000
6:02am            164          0          0         44        100       72.8       71.5      29.44       71.5        451          0       1384      -0.53       0.00       0.00      0.000
6:03am            164          0          0         44        100       72.8       71.5      29.44       71.5        450          0       1382      -0.53       0.00       0.00      0.000
6:04am            164          0          0         44        100       72.8       71.6      29.44       71.6        450          0       1389      -0.42       0.00       0.00      0.000
6:05am            164          0          0         44        100       72.8       71.6      29.44       71.6        451          0       1390      -0.41       0.00       0.00      0.000
6:06am            164          0          0         44        100       72.8       71.5      29.44       71.5        451          0       1384      -0.50       0.00       0.00      0.000
6:07am            164          0          0         44        100       72.8       71.6      29.44       71.6        451          0       1390      -0.40       0.00       0.00      0.000
6:08am            164          0          0         44        100       73.0       71.6      29.44       71.6        451          0       1390      -0.39       0.00       0.00      0.000
6:09am            164          0          0         44        100       73.0       71.6      29.44       71.6        451          0       1390      -0.38       0.00       0.00      0.000
6:10am            164          0          0         44        100       73.1       71.5      29.44       71.5        451          0       1384      -0.48       0.00       0.00      0.000
6:11am            164          0          0         44        100       73.1       71.5      29.44       71.5        451          0       1384      -0.47       0.00       0.00      0.000
6:12am            164          0          0         44        100       73.1       71.5      29.44       71.5        450          0       1382      -0.46       0.00       0.00      0.000
6:13am            164          0          0         44        100       73.0       71.5      29.44       71.5        451          0       1384      -0.45       0.00       0.00      0.000
6:14am            164          0          0         44        100       73.0       71.5      29.44       71.5        451          0       1384      -0.45       0.00       0.00      0.000
6:15am            164          0          0         44        100       73.0       71.4      29.44       71.4        451          0       1377      -0.54       0.00       0.00      0.000
6:16am            164          0          0         44        100       73.0       71.4      29.44       71.4        450          0       1376      -0.53       0.00       0.00      0.000
6:17am            164          0          0         44        100       73.1       71.5      29.44       71.5        450          0       1382      -0.42       0.00       0.00      0.000
6:18am            164          0          0         44        100       73.0       71.4      29.44       71.4        450          0       1376      -0.51       0.00       0.00      0.000
6:19am            164          0          0         44        100       73.0       71.4      29.44       71.4        450          0       1376      -0.51       0.00       0.00      0.000
6:20am            164          0          0         44        100       73.0       71.4      29.44       71.4        450          0       1376      -0.50       0.00       0.00      0.000
6:21am            164          0          0         44        100       73.0       71.4      29.44       71.4        449          0       1375      -0.49       0.00       0.00      0.000
6:22am            164          0          0         44        100       73.0       71.5      29.44       71.5        449          0       1381      -0.38       0.00       0.00      0.000
6:23am            164          0          0         44        100       73.0       71.5      29.44       71.5        449          0       1381      -0.38       0.00       0.00      0.000
6:24am            164          0          0         44        100       73.0       71.5      29.44       71.5        449          0       1381      -0.37       0.00       0.00      0.000
6:25am            164          0          0         44        100       73.1       71.5      29.44       71.5        450          0       1382      -0.36       0.00       0.00      0.000
6:26am            164          0          0         44        100       73.1       71.6      29.44       71.6        449          0       1388      -0.26       0.00       0.00      0.000
6:27am            164          0          0         44        100       73.1       71.6      29.44       71.6        449          0       1388      -0.25       0.00       0.00      0.000
6:28am            164          0          0         44        100       73.1       71.6      29.44       71.6        449          0       1388      -0.25       0.00       0.00      0.000
6:29am            164          0          0         44        100       73.1       71.6      29.44       71.6        449          0       1388      -0.24       0.00       0.00      0.000
6:30am            164          0          0         44        100       73.1       71.6      29.44       71.6        449          0       1388      -0.24       0.00       0.00      0.000
6:31am            164          0          0         44        100       73.1       71.6      29.44       71.6        450          0       1389      -0.24       0.00       0.00      0.000
6:32am            164          0          0         44        100       73.1       71.7      29.44       71.7        450          0       1395      -0.13       0.00       0.00      0.000
6:33am            164          0          0         44        100       73.1       71.7      29.44       71.7        450          0       1395      -0.13       0.00       0.00      0.000
6:34am            164          0          0         44        100       73.1       71.7      29.44       71.7        451          0       1396      -0.13       0.00       0.00      0.000
6:35am            164          0          0         44        100       73.1       71.7      29.44       71.7        451          0       1396      -0.13       0.00       0.00      0.000
6:36am            164          0          0         44        100       73.1       71.7      29.44       71.7        451          0       1396      -0.12       0.00       0.00      0.000
6:37am            164          0          0         44        100       73.1       71.7      29.44       71.7        451          0       1396      -0.12       0.00       0.00      0.000
6:38am            164          0          0         44        100       73.1       71.7      29.44       71.7        451          0       1396      -0.12       0.00       0.00      0.000
6:39am            164          0          0         44        100       73.1       71.7      29.44       71.7        451          0       1396      -0.12       0.00       0.00      0.000
6:40am            164          0          0         44        100       73.1       71.7      29.44       71.7        451          0       1396      -0.12       0.00       0.00      0.000
6:41am            164          0          0         44        100       73.1       71.8      29.44       71.8        451          0       1403      -0.02       0.00       0.00      0.000
6:42am            164          0          0         44        100       73.1       71.7      29.44       71.7        450          0       1395      -0.12       0.00       0.00      0.000
6:43am            164          0          0         44        100       73.3       71.8      29.44       71.8        450          0       1402      -0.02       0.00       0.00      0.000
6:44am            164          0          0         44        100       73.3       71.8      29.44       71.8        450          0       1402      -0.02       0.00       0.00      0.000
6:45am            164          0          0         44        100       73.3       71.8      29.44       71.8        450          0       1402      -0.02       0.00       0.00      0.000
6:46am            164          0          0         44        100       73.3       71.8      29.44       71.8        450          0       1402      -0.02       0.00       0.00      0.000
6:47am            164          0          0         44        100       73.3       71.8      29.44       71.8        450          0       1402      -0.02       0.00       0.00      0.000
6:48am            164          0          0         44        100       73.3       71.9      29.44       71.9        450          0       1408       0.08       0.00       0.00      0.000
6:49am            164          0          0         44        100       73.3       71.8      29.44       71.8        449          0       1400      -0.02       0.00       0.00      0.000
6:50am            164          0          0         44        100       73.3       71.8      29.44       71.8        449          0       1400      -0.02       0.00       0.00      0.000
6:51am            164          0          0         44        100       73.3       71.8      29.44       71.8        448          0       1399      -0.02       0.00       0.00      0.000
6:52am            164          0          0         44        100       73.3       71.7      29.44       71.7        446          0       1391      -0.12       0.00       0.00      0.000
6:53am            164          0          0         44        100       73.3       71.8      29.44       71.8        445          0       1396      -0.01       0.00       0.00      0.000
6:54am            164          0          0         44        100       73.3       71.7      29.44       71.7        443          0       1387      -0.11       0.00       0.00      0.000
6:55am            164          0          0         44        100       73.3       71.7      29.44       71.7        445          0       1390      -0.11       0.00       0.00      0.000
6:56am            164          0          0         44        100       73.3       71.7      29.44       71.7        445          0       1390      -0.11       0.00       0.00      0.000
6:57am            164          0          0         44        100       73.3       71.7      29.44       71.7        448          0       1393      -0.11       0.00       0.00      0.000
6:58am            164          0          0         44        100       73.3       71.7      29.44       71.7        448          0       1393      -0.11       0.00       0.00      0.000
6:59am            164          0          0         44        100       73.3       71.7      29.44       71.7        449          0       1394      -0.10       0.00       0.00      0.000
7:00am            164          0          0         44        100       73.5       71.7      29.44       71.7        449          0       1394      -0.10       0.00       0.00      0.000
7:01am            164          0          0         44        100       73.5       71.7      29.44       71.7        448          0       1393      -0.10       0.00       0.00      0.000
7:02am            164          0          0         44        100       73.5       71.7      29.44       71.7        446          0       1391      -0.10       0.00       0.00      0.000
7:03am            164          0          0         44        100       73.5       71.7      29.44       71.7        446          0       1391      -0.10       0.00       0.00      0.000
7:04am            164          0          0         44        100       73.5       71.7      29.44       71.7        448          0       1393      -0.09       0.00       0.00      0.000
7:05am            164          0          0         44        100       73.5       71.7      29.44       71.7        449          0       1394      -0.09       0.00       0.00      0.000
7:06am            164          0          0         44        100       73.5       71.8      29.44       71.8        450          0       1402       0.01       0.00       0.00      0.000
7:07am            164          0          0         44        100       73.5       71.9      29.44       71.9        450          0       1408       0.11       0.00       0.00      0.000
7:08am            164          0          0         44        100       73.5       71.9      29.44       71.9        450          0       1408       0.11       0.00       0.00      0.000
7:09am            164          0          0         44        100       73.5       71.9      29.44       71.9        451          0       1409       0.10       0.00       0.00      0.000
7:10am            164          0          0         44        100       73.5       71.9      29.44       71.9        451          0       1409       0.10       0.00       0.00      0.000
7:11am            164          0          0         44        100       73.5       72.0      29.44       72.0        451          0       1415       0.20       0.00       0.00      0.000
7:12am            164          0          0         44        100       73.5       72.0      29.44       72.0        451          0       1415       0.20       0.00       0.00      0.000
7:13am            164          0          0         44        100       73.5       72.0      29.44       72.0        451          0       1415       0.19       0.00       0.00      0.000
7:14am            164          0          0         44        100       73.5       72.1      29.44       72.1        451          0       1422       0.29       0.00       0.00      0.000
7:15am            164          0          0         44        100       73.5       72.1      29.44       72.1        450          0       1421       0.28       0.00       0.00      0.000
7:16am            164          0          0         44        100       73.6       72.1      29.44       72.1        450          0       1421       0.28       0.00       0.00      0.000
7:17am            164          0          0         44        100       73.6       72.1      29.44       72.1        449          0       1420       0.27       0.00       0.00      0.000
7:18am            164          0          0         44        100       73.6       72.1      29.44       72.1        449          0       1420       0.27       0.00       0.00      0.000
7:19am            164          0          0         44        100       73.6       72.1      29.44       72.1        448          0       1418       0.26       0.00       0.00      0.000
7:20am            164          0          0         44        100       73.6       72.2      29.44       72.2        448          0       1425       0.36       0.00       0.00      0.000
7:21am            164          0          0         45        100       73.6       72.3      29.44       72.3        448          0       1431       0.45       0.00       0.00      0.000
7:22am            164          0          0         44        100       73.6       72.3      29.44       72.3        446          0       1429       0.44       0.00       0.00      0.000
7:23am            164          0          0         44        100       73.6       72.3      29.44       72.3        448          0       1431       0.44       0.00       0.00      0.000
7:24am            164          0          0         44        100       73.6       72.4      29.44       72.4        446          0       1435       0.53       0.00       0.00      0.000
7:25am            164          0          0         44        100       73.6       72.4      29.44       72.4        448          0       1437       0.52       0.00       0.00      0.000
7:26am            164          0          0         44        100       73.6       72.4      29.44       72.4        449          0       1439       0.51       0.00       0.00      0.000
7:27am            164          0          0         44        100       73.6       72.5      29.44       72.5        450          0       1446       0.60       0.00       0.00      0.000
7:28am            164          0          0         44        100       73.6       72.5      29.44       72.5        450          0       1446       0.59       0.00       0.00      0.000
7:29am            164          0          0         44        100       73.6       72.5      29.44       72.5        449          0       1445       0.58       0.00       0.00      0.000
7:30am            164          0          0         44        100       73.6       72.5      29.44       72.5        448          0       1444       0.57       0.00       0.00      0.000
7:31am            164          0          0         44        100       73.6       72.6      29.44       72.6        447          0       1449       0.66       0.00       0.00      0.000
7:32am            164          1          2         44        100       73.8       72.6      29.44       72.6        448          0       1450       0.65       0.00       0.00      0.000
7:33am            164          0          2         44        100       73.8       72.6      29.44       72.6        448          0       1450       0.64       0.00       0.00      0.000
7:34am            164          0          2         44        100       73.8       72.6      29.44       72.6        449          0       1451       0.63       0.00       0.00      0.000
7:35am            164          0          2         44        100       73.8       72.7      29.44       72.7        448          0       1457       0.72       0.00       0.00      0.000
7:36am            164          0          0         45        100       73.8       72.7      29.44       72.7        448          0       1457       0.71       0.00       0.00      0.000
7:37am            164          0          0         45        100       73.8       72.8      29.44       72.8        447          0       1462       0.79       0.00       0.00      0.000
7:38am            164          0          0         44        100       73.8       72.8      29.44       72.8        447          0       1462       0.78       0.00       0.00      0.000
7:39am            164          1          2         44        100       73.8       72.9      29.44       72.9        446          0       1467       0.87       0.00       0.00      0.000
7:40am            164          0          2         44        100       73.8       73.0      29.44       73.0        445          0       1472       0.95       0.00       0.00      0.000
7:41am            164          1          2         44        100       73.8       73.0      29.44       73.0        446          0       1473       0.94       0.00       0.00      0.000
7:42am            164          1          2         44        100       73.8       73.0      29.44       73.0        446          0       1473       0.92       0.00       0.00      0.000
7:43am            164          1          2         44        100       73.8       73.1      29.44       73.1        446          0       1480       1.01       0.00       0.00      0.000
7:44am            164          0          2         44        100       73.8       73.1      29.44       73.1        447          0       1481       0.99       0.00       0.00      0.000
7:45am            164          0          3         45        100       74.0       73.2      29.44       73.2        448          0       1488       1.07       0.00       0.00      0.000
7:46am            164          1          3         45        100       74.0       73.3      29.44       73.3        448          0       1495       1.15       0.00       0.00      0.000
7:47am            164          2          3         44        100       74.0       73.3      29.44       73.3        448          0       1495       1.13       0.00       0.00      0.000
7:48am            164          1          3         44        100       74.0       73.4      29.44       73.4        447          0       1500       1.21       0.00       0.00      0.000
7:49am            164          1          3         44        100       74.0       73.4      29.44       73.4        448          0       1501       1.19       0.00       0.00      0.000
7:50am            164          0          3         45        100       74.0       73.5      29.44       73.5        447          0       1506       1.27       0.00       0.00      0.000
7:51am            164          1          2         45        100       74.0       73.6      29.44       73.6        447          0       1513       1.35       0.00       0.00      0.000
7:52am            164          0          2         45        100       74.0       73.6      29.44       73.6        448          0       1514       1.33       0.00       0.00      0.000
7:53am            164          0          2         45        100       74.0       73.6      29.44       73.6        448          0       1514       1.31       0.00       0.00      0.000
7:54am            164          0          2         45        100       74.0       73.7      29.44       73.7        448          0       1520       1.38       0.00       0.00      0.000
7:55am            164          0          2         45        100       74.0       73.8      29.44       73.8        448          0       1526       1.46       0.00       0.00      0.000
7:56am            164          0          2         44        100       74.0       73.8      29.44       73.8        445          0       1523       1.44       0.00       0.00      0.000
7:57am            164          0          2         44        100       74.0       73.8      29.44       73.8        445          0       1523       1.41       0.00       0.00      0.000
7:58am            227          5          6         45        100       74.0       73.9      29.44       73.9        444          0       1528       1.49       0.00       0.00      0.000
7:59am            229          0          6         45        100       74.0       74.0      29.44       74.0        442          0       1532       1.56       0.00       0.00      0.000
8:00am            229          0          6         45        100       74.2       74.0      29.44       74.0        443          0       1533       1.54       0.00       0.00      0.000
8:01am            229          0          0         45        100       74.2       74.0      29.44       74.0        442          0       1532       1.51       0.00       0.00      0.000
8:02am            230          1          1         45        100       74.2       74.1      29.45       74.1        441          0       1537       1.58       0.00       0.00      0.000
8:03am            346          2          2         45        100       74.2       74.2      29.44       74.2        442          0       1545       1.66       0.00       0.00      0.000
8:04am            346          0          3         45        100       74.2       74.2      29.45       74.2        441          0       1543       1.63       0.00       0.00      0.000
8:05am            347          2          3         44        100       74.2       74.3      29.45       74.3        441          0       1549       1.70       0.00       0.00      0.000
8:06am            347          0          2         45        100       74.2       74.4      29.45       74.4        440          0       1554       1.78       0.00       0.00      0.000
8:07am            347          0          2         45        100       74.2       74.4      29.45       74.4        441          0       1555       1.74       0.00       0.00      0.000
8:08am            347          0          2         45        100       74.2       74.5      29.45       74.5        439          0       1559       1.82       0.00       0.00      0.000
8:09am            347          2          2         45        100       74.2       74.6      29.45       74.6        440          0       1567       1.88       0.00       0.00      0.000
8:10am            347          1          2         45        100       74.2       74.7      29.45       74.7        439          0       1572       1.95       0.00       0.00      0.000
8:11am            345          0          1         45        100       74.2       74.8      29.45       74.8        439          0       1578       2.02       0.00       0.00      0.000
8:12am            245          1          2         45        100       74.2       74.9      29.45       74.9        440          0       1586       2.09       0.00       0.00      0.000
8:13am            243          1          2         45        100       74.2       74.9      29.45       74.9        439          0       1585       2.05       0.00       0.00      0.000
8:14am            243          0          2         45        100       74.3       75.0      29.45       75.0        439          0       1591       2.12       0.00       0.00      0.000
8:15am            245          0          2         45        100       74.3       75.1      29.45       75.1        439          0       1597       2.18       0.00       0.00      0.000
8:16am            245          2          2         45        100       74.3       75.2      29.45       75.2        439          0       1604       2.24       0.00       0.00      0.000
8:17am            245          0          2         45        100       74.3       75.3      29.45       75.3        438          0       1609       2.30       0.00       0.00      0.000
8:18am            245          0          2         45        100       74.3       75.3      29.45       75.3        438          0       1609       2.27       0.00       0.00      0.000
8:19am            245          0          2         45        100       74.3       75.4      29.45       75.4        438          0       1615       2.33       0.00       0.00      0.000
8:20am            245          0          2         45        100       74.3       75.5      29.45       75.5        438          0       1621       2.39       0.00       0.00      0.000
8:21am            245          0          0         45        100       74.3       75.5      29.45       75.5        439          0       1623       2.35       0.00       0.00      0.000
8:22am            245          0          1         45        100       74.3       75.6      29.45       75.6        439          0       1629       2.41       0.00       0.00      0.000
8:23am            245          1          2         45         99       74.3       75.5      29.45       75.5        439         74       1623       2.27       0.00       0.00      0.000
8:24am            245          0          2         45         99       74.3       75.6      29.45       75.6        439         74       1629       2.33       0.00       0.00      0.000
8:25am            245          0          2         45         99       74.3       75.6      29.45       75.6        439         74       1629       2.29       0.00       0.00      0.000
8:26am            245          0          0         45         99       74.3       75.6      29.45       75.6        437         74       1627       2.25       0.00       0.00      0.000
8:27am            246          0          0         45         99       74.3       75.6      29.45       75.6        437         74       1627       2.22       0.00       0.00      0.000
8:28am            246          0          0         45         99       74.3       75.6      29.45       75.6        437         74       1627       2.18       0.00       0.00      0.000
8:29am            229          1          3         45         99       74.3       75.6      29.45       75.6        437         74       1627       2.14       0.00       0.00      0.000
8:30am            229          1          3         45         98       74.5       75.6      29.45       75.6        437        150       1627       2.11       0.00       0.00      0.000
8:31am            229          1          2         45         98       74.5       75.5      29.45       75.5        438        150       1621       1.97       0.00       0.00      0.000
8:32am            230          3          3         45         98       74.5       75.6      29.45       75.6        438        150       1628       2.04       0.00       0.00      0.000
8:33am            231          1          3         45         98       74.5       75.6      29.45       75.6        438        150       1628       2.01       0.00       0.00      0.000
8:34am            185          4          4         45         98       74.5       75.5      29.45       75.5        438        150       1621       1.87       0.00       0.00      0.000
8:35am            185          0          4         45         98       74.5       75.5      29.45       75.5        438        150       1621       1.84       0.00       0.00      0.000
8:36am            185          0          2         45         98       74.5       75.5      29.45       75.5        438        150       1621       1.81       0.00       0.00      0.000
8:37am            184          2          3         45         98       74.5       75.6      29.45       75.6        439        150       1629       1.88       0.00       0.00      0.000
8:38am            184          0          3         45         98       74.5       75.6      29.45       75.6        439        150       1629       1.85       0.00       0.00      0.000
8:39am            184          1          3         45         98       74.5       75.6      29.45       75.6        440        150       1630       1.82       0.00       0.00      0.000
8:40am            184          0          3         45         98       74.5       75.7      29.45       75.7        440        150       1636       1.89       0.00       0.00      0.000
8:41am            184          1          2         45         98       74.5       75.7      29.45       75.7        441        150       1637       1.86       0.00       0.00      0.000
8:42am            184          0          2         45         98       74.5       75.7      29.45       75.7        441        150       1637       1.83       0.00       0.00      0.000
8:43am            184          1          2         45         98       74.7       75.8      29.44       75.8        442        150       1646       1.90       0.00       0.00      0.000
8:44am            184          1          2         45         98       74.7       75.8      29.45       75.8        441        150       1645       1.87       0.00       0.00      0.000
8:45am            184          1          2         45         97       74.7       75.8      29.44       75.8        443        227       1647       1.84       0.00       0.00      0.000
8:46am            184          2          2         45         97       74.7       75.8      29.44       75.8        443        227       1647       1.81       0.00       0.00      0.000
8:47am            184          0          2         45         97       74.7       75.8      29.44       75.8        443        227       1647       1.77       0.00       0.00      0.000
8:48am            184          2          3         45         97       74.7       75.8      29.44       75.8        446        227       1650       1.75       0.00       0.00      0.000
8:49am            184          2          3         45         97       74.7       75.9      29.44       75.9        448        227       1659       1.82       0.00       0.00      0.000
8:50am            184          0          3         45         97       74.7       75.9      29.44       75.9        449        227       1660       1.79       0.00       0.00      0.000
8:51am            184          0          1         45         97       74.7       76.0      29.44       76.0        449        227       1666       1.85       0.00       0.00      0.000
8:52am            184          0          2         45         96       74.7       76.0      29.44       76.0        451        305       1669       1.82       0.00       0.00      0.000
8:53am            184          0          2         45         96       74.7       76.1      29.44       76.1        451        305       1675       1.89       0.00       0.00      0.000
8:54am            184          1          2         46         96       74.7       76.2      29.44       76.2        451        305       1681       1.96       0.00       0.00      0.000
8:55am            184          1          2         45         96       74.7       76.2      29.44       76.2        451        305       1681       1.93       0.00       0.00      0.000
8:56am            184          2          4         45         96       74.7       76.2      29.43       76.2        452        305       1682       1.90       0.00       0.00      0.000
8:57am            184          2          4         45         96       74.7       76.2      29.43       76.2        452        305       1682       1.87       0.00       0.00      0.000
8:58am            184          1          4         45         96       74.9       76.3      29.43       76.3        452        305       1689       1.93       0.00       0.00      0.000
8:59am            184          0          4         45         96       74.9       76.4      29.43       76.4        452        305       1695       2.00       0.00       0.00      0.000
9:00am            184          1          4         45         96       74.9       76.4      29.43       76.4        452        305       1695       1.97       0.00       0.00      0.000
9:01am            184          1          1         45         96       74.9       76.5      29.43       76.5        453        305       1702       2.04       0.00       0.00      0.000
9:02am            184          1          3         45         95       74.9       76.5      29.43       76.5        453        384       1702       2.00       0.00       0.00      0.000
9:03am            184          0          3         45         95       74.9       76.5      29.43       76.5        453        384       1702       1.97       0.00       0.00      0.000
9:04am            184          0          3         45         95       74.9       76.6      29.43       76.6        453        384       1709       2.04       0.00       0.00      0.000
9:05am            184          0          3         45         95       74.9       76.6      29.43       76.6        453        384       1709       2.00       0.00       0.00      0.000
9:06am            184          1          1         45         95       74.9       76.7      29.43       76.7        453        384       1715       2.07       0.00       0.00      0.000
9:07am            184          0          1         45         95       74.9       76.7      29.43       76.7        453        384       1715       2.03       0.00       0.00      0.000
9:08am            184          0          1         45         95       74.9       76.9      29.43       76.9        453        384       1728       2.20       0.00       0.00      0.000
9:09am            184          2          2         45         95       74.9       76.9      29.43       76.9        453        384       1729       2.16       0.00       0.00      0.000
9:10am            184          0          2         45         94       74.9       76.9      29.43       76.9        453        464       1729       2.13       0.00       0.00      0.000
9:11am            184          2          2         45         94       74.9       76.9      29.43       76.9        453        464       1729       2.09       0.00       0.00      0.000
9:12am            185          3          3         45         94       74.9       76.9      29.43       76.9        454        464       1730       2.06       0.00       0.00      0.000
9:13am            185          0          3         45         94       74.9       77.0      29.43       77.0        455        464       1737       2.12       0.00       0.00      0.000
9:14am            185          2          3         45         94       74.9       77.1      29.43       77.1        455        464       1744       2.18       0.00       0.00      0.000
9:15am            185          0          3         45         94       74.9       77.1      29.43       77.1        455        464       1744       2.15       0.00       0.00      0.000
9:16am            185          0          1         45         94       74.9       77.3      29.43       77.3        455        464       1756       2.31       0.00       0.00      0.000
9:17am            185          0          1         45         94       74.9       77.3      29.43       77.3        455        464       1756       2.27       0.00       0.00      0.000
9:18am            185          0          1         45         94       74.9       77.4      29.43       77.4        456        465       1764       2.33       0.00       0.00      0.000
9:19am            185          2          2         45         94       74.9       77.5      29.43       77.5        458        465       1772       2.39       0.00       0.00      0.000
9:20am            185          1          2         45         94       74.9       77.6      29.43       77.6        459        465       1780       2.45       0.00       0.00      0.000
9:21am            185          0          1         45         94       74.9       77.6      29.43       77.6        460        465       1781       2.42       0.00       0.00      0.000
9:22am            185          1          2         45         93       74.9       77.7      29.43       77.7        460        545       1787       2.48       0.00       0.00      0.000
9:23am            185          0          2         45         93       74.9       77.8      29.43       77.8        461        546       1794       2.53       0.00       0.00      0.000
9:24am            185          0          2         45         93       74.7       77.9      29.42       77.9        462        546       1802       2.59       0.00       0.00      0.000
9:25am            185          1          2         45         93       74.7       78.0      29.42       78.0        463        546       1809       2.65       0.00       0.00      0.000
9:26am            185          0          1         45         93       74.7       78.1      29.42       78.1        462        546       1814       2.70       0.00       0.00      0.000
9:27am            185          0          1         45         93       74.7       78.2      29.43       78.2        460        546       1818       2.75       0.00       0.00      0.000
9:28am            185          0          1         45         93       74.7       78.2      29.43       78.2        456        546       1814       2.71       0.00       0.00      0.000
9:29am            185          0          1         45         92       74.7       78.2      29.43       78.2        454        628       1812       2.67       0.00       0.00      0.000
9:30am            185          0          2         45         92       74.7       78.3      29.43       78.3        453        628       1816       2.72       0.00       0.00      0.000
9:31am            185          0          0         45         92       74.7       78.3      29.43       78.3        452        628       1814       2.67       0.00       0.00      0.000
9:32am            185          0          0         45         92       74.7       78.4      29.43       78.4        452        628       1821       2.73       0.00       0.00      0.000
9:33am            185          0          0         45         92       74.7       78.4      29.43       78.4        452        628       1821       2.69       0.00       0.00      0.000
9:34am            185          0          0         45         92       74.7       78.4      29.43       78.4        452        628       1821       2.64       0.00       0.00      0.000
9:35am            185          0          0         45         92       74.7       78.4      29.44       78.4        451        628       1820       2.60       0.00       0.00      0.000
9:36am            185          0          1         45         92       74.7       78.4      29.44       78.4        451        628       1820       2.56       0.00       0.00      0.000
9:37am            185          0          1         45         92       74.7       78.4      29.44       78.4        451        628       1820       2.51       0.00       0.00      0.000
9:38am            185          0          1         45         92       74.7       78.4      29.44       78.4        451        628       1820       2.47       0.00       0.00      0.000
9:39am            185          0          1         45         91       74.7       78.4      29.44       78.4        451        710       1820       2.43       0.00       0.00      0.000
9:40am            185          0          1         45         92       74.7       78.4      29.44       78.4        451        628       1820       2.39       0.00       0.00      0.000
9:41am            185          0          0         45         92       74.7       78.5      29.44       78.5        451        628       1826       2.45       0.00       0.00      0.000
9:42am            185          0          0         45         92       74.7       78.5      29.43       78.5        452        628       1827       2.41       0.00       0.00      0.000
9:43am            185          0          0         45         92       74.9       78.6      29.43       78.6        452        629       1833       2.47       0.00       0.00      0.000
9:44am            185          0          0         45         92       74.9       78.7      29.43       78.7        452        629       1840       2.53       0.00       0.00      0.000
9:45am            185          0          0         45         92       74.9       78.7      29.43       78.7        452        629       1840       2.48       0.00       0.00      0.000
9:46am            185          0          0         45         92       74.9       78.9      29.43       78.9        452        629       1852       2.64       0.00       0.00      0.000
9:47am            185          0          1         45         92       74.9       79.1      29.43       79.1        452        630       1865       2.80       0.00       0.00      0.000
9:48am            185          2          2         45         91       74.9       79.2      29.43       79.2        453        713       1872       2.85       0.00       0.00      0.000
9:49am            259          3          3         45         91       74.9       79.3      29.43       79.3        453        713       1878       2.90       0.00       0.00      0.000
9:50am            186          1          4         45         90       74.9       79.4      29.43       79.4        452        796       1883       2.95       0.00       0.00      0.000
9:51am            186          0          1         45         90       74.9       79.6      29.43       79.6        452        797       1896       3.10       0.00       0.00      0.000
9:52am            186          0          1         45         90       74.9       79.8      29.43       79.8        452        798       1908       3.25       0.00       0.00      0.000
9:53am            186          0          1         45         90       74.9       79.9      29.43       79.9        452        798       1915       3.29       0.00       0.00      0.000
9:54am            186          0          1         45         90       74.9       80.0      29.43       80.0        452        798       1921       3.34       0.00       0.00      0.000
9:55am            186          0          1         45         90       74.9       80.1      29.44       80.1        451        799       1926       3.38       0.00       0.00      0.000
9:56am            186          0          0         45         90       74.9       80.2      29.43       80.2        452        799       1933       3.42       0.00       0.00      0.000
9:57am            186          0          0         45         90       74.9       80.3      29.44       80.3        451        799       1938       3.47       0.00       0.00      0.000
9:58am            188          1          2         45         89       74.9       80.3      29.44       80.3        451        884       1938       3.41       0.00       0.00      0.000
9:59am            188          1          2         45         89       74.9       80.4      29.43       80.4        452        884       1946       3.45       0.00       0.00      0.000
10:00am           188          1          2         45         89       75.0       80.5      29.43       80.5        453        884       1953       3.49       0.00       0.00      0.000
10:01am           188          0          1         45         89       75.0       80.7      29.43       80.7        453        885       1966       3.63       0.00       0.00      0.000
10:02am           188          2          2         45         89       75.0       80.9      29.43       80.9        453        886       1978       3.77       0.00       0.00      0.000
10:03am           356          0          3         45         88       75.0       80.9      29.43       80.9        452        971       1977       3.71       0.00       0.00      0.000
10:04am           329          1          3         45         88       74.9       81.1      29.43       81.1        453        972       1991       3.85       0.00       0.00      0.000
10:05am           329          0          3         45         88       74.9       81.3      29.43       81.3        453        973       2003       3.98       0.00       0.00      0.000
10:06am           329          0          0         45         88       74.9       81.4      29.44       81.4        451        973       2007       4.01       0.00       0.00      0.000
10:07am           331          1          1         45         88       74.9       81.5      29.43       81.5        452        973       2014       4.05       0.00       0.00      0.000
10:08am           271          4          5         45         88       74.9       81.6      29.43       81.6        452        974       2021       4.08       0.00       0.00      0.000
10:09am             5          0          5         45         86       74.9       81.7      29.43       81.7        452       1148       2027       4.11       0.00       0.00      0.000
10:10am             5          0          5         45         87       74.9       81.8      29.43       81.8        452       1061       2033       4.14       0.00       0.00      0.000
10:11am           193          3          3         45         87       74.9       81.9      29.43       81.9        453       1062       2040       4.17       0.00       0.00      0.000
10:12am           194          1          3         45         86       74.9       82.0      29.43       82.0        453       1150       2047       4.20       0.00       0.00      0.000
10:13am           194          1          3         45         86       74.9       82.1      29.43       82.1        453       1150       2053       4.23       0.00       0.00      0.000
10:14am           194          1          3         45         85       74.9       82.3      29.43       82.3        453       1239       2065       4.36       0.00       0.00      0.000
10:15am           120          3          3         45         85       74.9       82.3      29.43       82.3        453       1239       2066       4.29       0.00       0.00      0.000
10:16am           237          3          4         45         85       74.7       82.5      29.43       82.5        453       1240       2079       4.42       0.00       0.00      0.000
10:17am           184          1          4         45         85       74.7       82.6      29.43       82.6        453       1241       2085       4.44       0.00       0.00      0.000
10:18am           184          0          4         45         85       74.7       82.6      29.43       82.6        453       1241       2084       4.37       0.00       0.00      0.000
10:19am           256          1          4         45         85       74.7       82.7      29.43       82.7        453       1241       2090       4.40       0.00       0.00      0.000
10:20am           256          0          4         45         85       74.7       82.8      29.43       82.8        453       1242       2096       4.42       0.00       0.00      0.000
10:21am           256          0          2         45         85       74.7       82.9      29.43       82.9        453       1242       2103       4.45       0.00       0.00      0.000
10:22am           256          0          2         45         85       74.7       83.0      29.43       83.0        453       1243       2109       4.47       0.00       0.00      0.000
10:23am           258          0          2         45         85       74.7       83.0      29.43       83.0        453       1243       2109       4.40       0.00       0.00      0.000
10:24am           258          0          2         45         85       74.7       83.1      29.43       83.1        453       1243       2116       4.43       0.00       0.00      0.000
10:25am           258          0          2         45         85       74.7       83.2      29.43       83.2        453       1244       2122       4.45       0.00       0.00      0.000
10:26am           350          0          0         45         83       74.7       83.4      29.43       83.4        456       1425       2138       4.57       0.00       0.00      0.000
10:27am           215          0          0         45         83       74.7       83.5      29.43       83.5        458       1426       2146       4.60       0.00       0.00      0.000
10:28am           176          0          1         45         84       74.7       83.8      29.43       83.8        457       1337       2164       4.82       0.00       0.00      0.000
10:29am           291          2          2         45         84       74.7       83.9      29.43       83.9        458       1337       2171       4.84       0.00       0.00      0.000
10:30am           289          1          2         45         83       74.7       84.1      29.43       84.1        458       1430       2184       4.96       0.00       0.00      0.000
10:31am           229          2          5         45         83       74.7       84.2      29.43       84.2        457       1430       2189       4.97       0.00       0.00      0.000
10:32am           191          2          5         45         82       74.7       84.3      29.43       84.3        458       1523       2196       4.99       0.00       0.00      0.000
10:33am           187          1          5         45         82       74.7       84.4      29.43       84.4        457       1523       2201       5.01       0.00       0.00      0.000
10:34am           135          1          5         45         82       74.7       84.5      29.43       84.5        458       1524       2208       5.02       0.00       0.00      0.000
10:35am           300          1          5         45         81       74.7       84.5      29.43       84.5        459       1617       2209       4.94       0.00       0.00      0.000
10:36am            89          3          3         45         81       74.7       84.6      29.43       84.6        459       1618       2216       4.96       0.00       0.00      0.000
10:37am            89          0          3         45         81       74.7       84.7      29.43       84.7        459       1618       2222       4.97       0.00       0.00      0.000
10:38am            89          0          3         45         81       74.7       84.8      29.43       84.8        458       1619       2227       4.99       0.00       0.00      0.000
10:39am            89          0          3         45         82       74.7       84.8      29.43       84.8        457       1526       2226       4.91       0.00       0.00      0.000
10:40am           266          2          6         45         81       74.7       85.0      29.43       85.0        457       1620       2238       5.03       0.00       0.00      0.000
10:41am           226          1          3         45         81       74.7       85.1      29.43       85.1        457       1621       2244       5.04       0.00       0.00      0.000
10:42am           229          2          3         45         81       74.7       85.2      29.43       85.2        458       1622       2252       5.06       0.00       0.00      0.000
10:43am           310          1          3         45         80       74.7       85.2      29.43       85.2        457       1716       2250       4.97       0.00       0.00      0.000
10:44am           310          1          3         45         82       74.7       85.2      29.43       85.2        458       1528       2252       4.89       0.00       0.00      0.000
10:45am           310          0          3         45         81       74.7       85.2      29.43       85.2        458       1622       2252       4.81       0.00       0.00      0.000
10:46am           310          1          2         45         81       74.7       85.3      29.43       85.3        458       1622       2258       4.83       0.00       0.00      0.000
10:47am           310          1          2         45         82       74.7       85.4      29.43       85.4        457       1530       2263       4.85       0.00       0.00      0.000
10:48am           310          0          2         45         81       74.7       85.4      29.43       85.4        458       1623       2264       4.77       0.00       0.00      0.000
10:49am           314          1          2         45         80       74.5       85.4      29.43       85.4        457       1717       2263       4.70       0.00       0.00      0.000
10:50am           314          1          2         45         80       74.5       85.5      29.43       85.5        456       1718       2268       4.71       0.00       0.00      0.000
10:51am           314          0          1         45         81       74.5       85.6      29.43       85.6        456       1624       2274       4.74       0.00       0.00      0.000
10:52am           264          3          7         45         79       74.5       85.6      29.43       85.6        456       1814       2274       4.65       0.00       0.00      0.000
10:53am           251          3          7         45         80       74.5       85.7      29.43       85.7        457       1720       2281       4.68       0.00       0.00      0.000
10:54am           254          1          7         45         79       74.5       85.8      29.43       85.8        457       1816       2287       4.70       0.00       0.00      0.000
10:55am           212          1          7         45         80       74.5       85.8      29.43       85.8        456       1720       2286       4.62       0.00       0.00      0.000
10:56am           212          0          2         45         80       74.5       85.9      29.43       85.9        455       1721       2291       4.64       0.00       0.00      0.000
10:57am           212          0          2         45         80       74.5       86.0      29.43       86.0        455       1722       2298       4.67       0.00       0.00      0.000
10:58am           212          0          2         45         80       74.3       86.2      29.43       86.2        454       1723       2309       4.79       0.00       0.00      0.000
10:59am           310          2          4         45         80       74.3       86.2      29.43       86.2        454       1723       2309       4.71       0.00       0.00      0.000
11:00am           310          1          4         45         79       74.3       86.4      29.43       86.4        453       1820       2320       4.83       0.00       0.00      0.000
11:01am           195          2          2         45         79       74.3       86.5      29.43       86.5        453       1821       2326       4.85       0.00       0.00      0.000
11:02am           195          1          2         45         80       74.3       86.6      29.43       86.6        453       1726       2332       4.87       0.00       0.00      0.000
11:03am           187          0          2         45         79       74.3       86.7      29.43       86.7        453       1822       2338       4.88       0.00       0.00      0.000
11:04am           187          0          2         45         79       74.3       86.8      29.43       86.8        453       1823       2345       4.91       0.00       0.00      0.000
11:05am           187          0          2         45         79       74.3       86.9      29.43       86.9        453       1824       2351       4.92       0.00       0.00      0.000
11:06am           220          2          3         45         78       74.3       87.0      29.43       87.0        453       1922       2357       4.94       0.00       0.00      0.000
11:07am           217          0          3         45         78       74.2       87.0      29.43       87.0        453       1922       2357       4.86       0.00       0.00      0.000
11:08am           217          0          3         45         78       74.2       87.1      29.43       87.1        453       1923       2363       4.88       0.00       0.00      0.000
11:09am           217          0          3         45         78       74.2       87.1      29.43       87.1        453       1923       2363       4.80       0.00       0.00      0.000
11:10am           217          0          3         45         78       74.2       87.2      29.43       87.2        453       1923       2369       4.81       0.00       0.00      0.000
11:11am           217          0          0         46         79       74.2       87.2      29.43       87.2        454       1826       2370       4.73       0.00       0.00      0.000
11:12am           217          1          1         45         78       74.2       87.3      29.43       87.3        453       1924       2375       4.76       0.00       0.00      0.000
11:13am           217          0          1         45         77       74.2       87.3      29.43       87.3        454       2023       2376       4.68       0.00       0.00      0.000
11:14am           217          0          2         45         77       74.2       87.4      29.43       87.4        454       2023       2383       4.70       0.00       0.00      0.000
11:15am           217          0          2         45         78       74.2       87.4      29.43       87.4        454       1925       2383       4.62       0.00       0.00      0.000
11:16am           176          2          4         45         77       74.2       87.4      29.43       87.4        455       2023       2384       4.55       0.00       0.00      0.000
11:17am           191          1          4         45         77       74.2       87.3      29.43       87.3        455       2023       2378       4.37       0.00       0.00      0.000
11:18am           195          2          4         45         76       74.2       87.3      29.43       87.3        455       2122       2378       4.30       0.00       0.00      0.000
11:19am           196          1          4         45         75       74.2       87.3      29.43       87.3        456       2223       2379       4.23       0.00       0.00      0.000
11:20am           196          0          4         45         75       74.3       87.2      29.43       87.2        456       2222       2373       4.06       0.00       0.00      0.000
11:21am           242          3          4         45         75       74.3       87.3      29.43       87.3        457       2223       2380       4.09       0.00       0.00      0.000
11:22am           242          0          4         45         74       74.3       87.3      29.43       87.3        458       2324       2381       4.02       0.00       0.00      0.000
11:23am           356          0          4         45         75       74.3       87.4      29.43       87.4        458       2224       2387       4.06       0.00       0.00      0.000
11:24am           355          0          4         45         75       74.3       87.5      29.43       87.5        459       2224       2394       4.09       0.00       0.00      0.000
11:25am           355          1          4         45         76       74.3       87.5      29.43       87.5        458       2124       2393       4.02       0.00       0.00      0.000
11:26am           355          1          2         45         75       74.3       87.6      29.43       87.6        458       2225       2399       4.05       0.00       0.00      0.000
11:27am           152          2          3         45         75       74.3       87.6      29.43       87.6        458       2225       2399       3.99       0.00       0.00      0.000
11:28am           190          3          3         45         75       74.3       87.6      29.43       87.6        457       2225       2398       3.92       0.00       0.00      0.000
11:29am           191          0          3         45         74       74.2       87.6      29.43       87.6        457       2327       2398       3.85       0.00       0.00      0.000
11:30am           191          0          3         45         74       74.2       87.6      29.43       87.6        458       2327       2399       3.79       0.00       0.00      0.000
11:31am           285          4          4         45         74       74.2       87.6      29.43       87.6        459       2327       2400       3.73       0.00       0.00      0.000
11:32am           210          1          4         45         75       74.2       87.7      29.43       87.7        458       2226       2405       3.76       0.00       0.00      0.000
11:33am           224          2          4         45         76       74.2       87.7      29.43       87.7        457       2125       2404       3.71       0.00       0.00      0.000
11:34am           254          1          4         45         77       74.2       87.7      29.43       87.7        458       2026       2405       3.64       0.00       0.00      0.000
11:35am           116          0          4         45         73       74.2       87.7      29.43       87.7        460       2431       2408       3.58       0.00       0.00      0.000
11:36am           185          2          3         45         76       74.2       87.8      29.43       87.8        460       2126       2414       3.62       0.00       0.00      0.000
11:37am           224          1          3         45         76       74.2       87.9      29.43       87.9        461       2127       2421       3.66       0.00       0.00      0.000
11:38am           224          0          3         45         76       74.2       87.9      29.42       87.9        462       2127       2422       3.60       0.00       0.00      0.000
11:39am           224          0          3         45         76       74.2       88.0      29.42       88.0        464       2128       2431       3.64       0.00       0.00      0.000
11:40am           226          4          4         45         76       74.0       88.0      29.42       88.0        462       2128       2428       3.58       0.00       0.00      0.000
11:41am           218          1          5         45         74       74.0       88.0      29.42       88.0        462       2331       2428       3.52       0.00       0.00      0.000
11:42am           218          0          5         45         74       74.0       88.0      29.42       88.0        462       2331       2428       3.46       0.00       0.00      0.000
11:43am           218          0          5         45         76       74.0       87.9      29.43       87.9        460       2127       2420       3.31       0.00       0.00      0.000
11:44am           218          0          5         45         76       74.0       87.8      29.42       87.8        463       2126       2417       3.15       0.00       0.00      0.000
11:45am           219          0          5         45         77       74.0       87.8      29.42       87.8        463       2027       2417       3.10       0.00       0.00      0.000
11:46am           218          0          0         45         76       74.0       87.7      29.42       87.7        462       2125       2410       2.95       0.00       0.00      0.000
11:47am           218          0          1         45         74       74.0       87.7      29.43       87.7        460       2328       2408       2.90       0.00       0.00      0.000
11:48am           218          0          1         45         74       74.0       87.6      29.43       87.6        459       2327       2400       2.76       0.00       0.00      0.000
11:49am           218          0          1         45         75       74.0       87.6      29.43       87.6        458       2225       2399       2.71       0.00       0.00      0.000
11:50am           218          0          1         44         75       73.8       87.6      29.43       87.6        458       2225       2399       2.66       0.00       0.00      0.000
11:51am           218          0          0         44         75       73.8       87.6      29.43       87.6        458       2225       2399       2.62       0.00       0.00      0.000
11:52am           218          0          0         44         76       73.8       87.6      29.43       87.6        458       2125       2399       2.58       0.00       0.00      0.000
11:53am           218          0          0         44         76       73.8       87.5      29.43       87.5        457       2124       2392       2.43       0.00       0.00      0.000
11:54am           216          0          0         45         75       73.8       87.5      29.43       87.5        458       2224       2393       2.39       0.00       0.00      0.000
11:55am           201          0          0         45         76       73.8       87.4      29.43       87.4        460       2123       2389       2.26       0.00       0.00      0.000
11:56am           201          0          0         44         77       73.8       87.4      29.43       87.4        460       2023       2389       2.22       0.00       0.00      0.000
11:57am           201          0          0         45         77       73.8       87.3      29.43       87.3        461       2023       2384       2.08       0.00       0.00      0.000
11:58am           201          0          0         45         77       73.8       87.2      29.42       87.2        463       2022       2380       1.95       0.00       0.00      0.000
11:59am           201          0          0         45         77       73.8       87.1      29.42       87.1        464       2021       2375       1.82       0.00       0.00      0.000
12:00pm           201          0          0         44         77       73.8       87.0      29.42       87.0        464       2020       2370       1.69       0.00       0.00      0.000
12:01pm           201          0          0         45         77       73.8       87.0      29.42       87.0        464       2020       2370       1.66       0.00       0.00      0.000
12:02pm           201          0          0         45         78       73.8       87.0      29.42       87.0        464       1922       2370       1.64       0.00       0.00      0.000
12:03pm           201          0          0         44         77       73.8       86.8      29.42       86.8        464       2018       2358       1.41       0.00       0.00      0.000
12:04pm           201          0          0         45         77       73.8       86.7      29.42       86.7        465       2018       2353       1.29       0.00       0.00      0.000
12:05pm           201          0          0         44         76       73.8       86.6      29.42       86.6        465       2116       2347       1.17       0.00       0.00      0.000
12:06pm           201          0          0         45         78       73.8       86.6      29.42       86.6        466       1919       2348       1.15       0.00       0.00      0.000
12:07pm           201          0          0         45         78       73.8       86.4      29.42       86.4        465       1917       2335       0.93       0.00       0.00      0.000
12:08pm           201          0          0         45         78       73.8       86.4      29.42       86.4        464       1917       2333       0.92       0.00       0.00      0.000
12:09pm           201          0          0         44         77       73.8       86.2      29.42       86.2        464       2014       2320       0.70       0.00       0.00      0.000
12:10pm            95          1          3         44         77       74.0       86.1      29.42       86.1        464       2013       2314       0.59       0.00       0.00      0.000
12:11pm            95          2          2         45         77       74.0       85.9      29.42       85.9        464       2011       2302       0.38       0.00       0.00      0.000
12:12pm            95          0          3         45         77       74.0       85.7      29.42       85.7        462       2009       2287       0.18       0.00       0.00      0.000
12:13pm            95          0          3         45         78       74.0       85.6      29.42       85.6        462       1911       2281       0.08       0.00       0.00      0.000
12:14pm            95          0          3         44         78       74.0       85.5      29.42       85.5        462       1910       2275      -0.03       0.00       0.00      0.000
12:15pm            95          0          3         45         79       74.0       85.5      29.42       85.5        462       1814       2275      -0.03       0.00       0.00      0.000
12:16pm            95          0          0         45         79       74.0       85.4      29.42       85.4        462       1813       2268      -0.12       0.00       0.00      0.000
12:17pm            95          0          0         45         79       74.0       85.4      29.42       85.4        463       1813       2270      -0.12       0.00       0.00      0.000
12:18pm            95          0          0         45         80       74.0       85.2      29.42       85.2        464       1716       2258      -0.32       0.00       0.00      0.000
12:19pm            95          0          0         45         79       74.0       85.2      29.42       85.2        464       1811       2258      -0.31       0.00       0.00      0.000
12:20pm            95          0          0         45         79       74.0       85.2      29.42       85.2        464       1811       2258      -0.31       0.00       0.00      0.000
12:21pm            95          0          0         45         80       74.0       85.1      29.42       85.1        463       1715       2251      -0.40       0.00       0.00      0.000
12:22pm            95          0          0         44         80       74.0       85.0      29.42       85.0        464       1715       2246      -0.50       0.00       0.00      0.000
12:23pm            95          0          2         45         79       73.8       85.0      29.42       85.0        464       1810       2246      -0.49       0.00       0.00      0.000
12:24pm            95          0          2         45         80       73.8       85.0      29.42       85.0        464       1715       2247      -0.48       0.00       0.00      0.000
12:25pm            95          0          2         44         80       73.8       84.9      29.42       84.9        465       1714       2242      -0.57       0.00       0.00      0.000
12:26pm            95          0          1         44         81       73.8       84.9      29.42       84.9        465       1620       2242      -0.56       0.00       0.00      0.000
12:27pm            95          0          1         44         81       73.8       84.9      29.42       84.9        466       1620       2243      -0.55       0.00       0.00      0.000
12:28pm            95          0          1         44         81       73.8       84.9      29.42       84.9        466       1620       2243      -0.54       0.00       0.00      0.000
12:29pm            95          0          1         44         82       73.8       85.0      29.42       85.0        466       1527       2249      -0.44       0.00       0.00      0.000
12:30pm            95          1          1         44         82       73.8       84.9      29.42       84.9        467       1526       2244      -0.53       0.00       0.00      0.000
12:31pm            95          0          1         45         82       73.8       84.9      29.42       84.9        467       1526       2244      -0.52       0.00       0.00      0.000
12:32pm            95          0          1         45         82       73.8       85.0      29.42       85.0        467       1527       2250      -0.41       0.00       0.00      0.000
12:33pm            95          0          1         44         82       73.6       84.9      29.42       84.9        467       1526       2244      -0.50       0.00       0.00      0.000
12:34pm            95          1          1         45         81       73.6       84.8      29.42       84.8        467       1619       2238      -0.60       0.00       0.00      0.000
12:35pm            95          0          1         45         82       73.6       84.9      29.42       84.9        467       1526       2244      -0.49       0.00       0.00      0.000
12:36pm            95          0          0         44         81       73.6       84.9      29.42       84.9        467       1620       2244      -0.48       0.00       0.00      0.000
12:37pm            95          0          0         44         82       73.6       85.0      29.42       85.0        468       1527       2252      -0.37       0.00       0.00      0.000
12:38pm            95          2          2         44         82       73.6       85.0      29.42       85.0        468       1527       2252      -0.37       0.00       0.00      0.000
12:39pm            95          0          2         44         81       73.6       85.0      29.42       85.0        468       1620       2252      -0.36       0.00       0.00      0.000
12:40pm            95          0          2         45         81       73.6       85.1      29.42       85.1        468       1621       2258      -0.26       0.00       0.00      0.000
12:41pm            95          0          0         44         82       73.6       85.1      29.42       85.1        468       1528       2258      -0.25       0.00       0.00      0.000
12:42pm            95          0          0         45         82       73.6       85.2      29.42       85.2        468       1528       2264      -0.15       0.00       0.00      0.000
12:43pm            95          0          0         44         82       73.6       85.3      29.42       85.3        468       1529       2270      -0.05       0.00       0.00      0.000
12:44pm            95          1          2         44         82       73.6       85.4      29.42       85.4        469       1530       2277       0.05       0.00       0.00      0.000
12:45pm            95          0          2         44         82       73.6       85.4      29.42       85.4        469       1530       2277       0.05       0.00       0.00      0.000
12:46pm            95          1          2         45         81       73.6       85.4      29.42       85.4        469       1623       2277       0.05       0.00       0.00      0.000
12:47pm            95          0          2         44         81       73.6       85.4      29.42       85.4        470       1623       2279       0.05       0.00       0.00      0.000
12:48pm            95          2          2         45         81       73.6       85.5      29.42       85.5        469       1624       2284       0.15       0.00       0.00      0.000
12:49pm            95          1          3         44         81       73.6       85.6      29.42       85.6        470       1624       2291       0.24       0.00       0.00      0.000
12:50pm            95          1          3         44         81       73.6       85.6      29.41       85.6        473       1624       2294       0.24       0.00       0.00      0.000
12:51pm            95          0          1         45         82       73.6       85.7      29.41       85.7        476       1531       2304       0.34       0.00       0.00      0.000
12:52pm            95          2          2         44         81       73.6       85.7      29.41       85.7        478       1625       2307       0.33       0.00       0.00      0.000
12:53pm            95          1          2         44         79       73.6       85.6      29.41       85.6        478       1814       2301       0.22       0.00       0.00      0.000
12:54pm            95          0          2         44         79       73.6       85.7      29.40       85.7        480       1815       2309       0.32       0.00       0.00      0.000
12:55pm            95          0          2         44         81       73.6       85.8      29.40       85.8        481       1626       2317       0.41       0.00       0.00      0.000
12:56pm            95          1          1         45         81       73.6       85.9      29.40       85.9        481       1626       2323       0.51       0.00       0.00      0.000
12:57pm            95          0          1         44         80       73.8       85.9      29.40       85.9        481       1721       2323       0.50       0.00       0.00      0.000
12:58pm            95          0          1         44         81       73.8       86.0      29.40       86.0        480       1627       2328       0.59       0.00       0.00      0.000
12:59pm            95          0          1         45         81       73.8       86.0      29.40       86.0        480       1627       2328       0.58       0.00       0.00      0.000
1:00pm             95          0          2         45         80       73.8       86.0      29.40       86.0        480       1722       2328       0.57       0.00       0.00      0.000
1:01pm             95          1          1         44         78       73.8       86.0      29.40       86.0        481       1914       2329       0.56       0.00       0.00      0.000
1:02pm             95          2          2         44         81       73.8       86.1      29.40       86.1        481       1628       2335       0.65       0.00       0.00      0.000
1:03pm             95          2          3         44         81       73.8       86.2      29.40       86.2        481       1628       2341       0.74       0.00       0.00      0.000
1:04pm             95          0          3         44         81       73.8       86.2      29.40       86.2        482       1628       2342       0.73       0.00       0.00      0.000
1:05pm             95          0          3         44         80       73.8       86.2      29.40       86.2        482       1723       2342       0.72       0.00       0.00      0.000
1:06pm             95          0          1         44         80       73.8       86.2      29.40       86.2        482       1723       2342       0.70       0.00       0.00      0.000
1:07pm             95          0          1         44         81       73.8       86.2      29.40       86.2        483       1628       2344       0.69       0.00       0.00      0.000
1:08pm             95          1          2         44         80       73.6       86.4      29.40       86.4        483       1724       2356       0.88       0.00       0.00      0.000
1:09pm             95          2          3         44         80       73.6       86.5      29.40       86.5        483       1725       2362       0.96       0.00       0.00      0.000
1:10pm             95          0          3         44         80       73.6       86.6      29.40       86.6        483       1726       2368       1.05       0.00       0.00      0.000
1:11pm             95          0          0         44         80       73.6       86.7      29.40       86.7        483       1726       2374       1.13       0.00       0.00      0.000
1:12pm            283          2          4         44         80       73.6       86.7      29.40       86.7        483       1726       2374       1.11       0.00       0.00      0.000
1:13pm            305          0          4         44         79       73.6       86.7      29.40       86.7        483       1822       2374       1.09       0.00       0.00      0.000
1:14pm            305          0          4         44         79       73.6       86.7      29.40       86.7        482       1822       2373       1.07       0.00       0.00      0.000
1:15pm            305          0          4         44         80       73.6       86.7      29.40       86.7        481       1726       2372       1.06       0.00       0.00      0.000
1:16pm            300          1          2         45         79       73.6       86.8      29.40       86.8        480       1823       2377       1.14       0.00       0.00      0.000
1:17pm            156          0          3         44         79       73.6       86.9      29.40       86.9        482       1824       2386       1.22       0.00       0.00      0.000
1:18pm            160          0          3         44         79       73.6       87.0      29.40       87.0        482       1825       2392       1.30       0.00       0.00      0.000
1:19pm            220          3          3         44         79       73.6       87.2      29.40       87.2        482       1826       2404       1.47       0.00       0.00      0.000
1:20pm            215          2          3         44         76       73.5       87.2      29.40       87.2        482       2121       2404       1.45       0.00       0.00      0.000
1:21pm            221          1          3         44         77       73.5       87.3      29.40       87.3        482       2023       2410       1.53       0.00       0.00      0.000
1:22pm            173          3          4         44         79       73.5       87.5      29.40       87.5        483       1828       2423       1.70       0.00       0.00      0.000
1:23pm            173          1          4         44         78       73.5       87.5      29.40       87.5        483       1926       2423       1.67       0.00       0.00      0.000
1:24pm            177          2          4         44         77       73.5       87.6      29.40       87.6        483       2025       2430       1.74       0.00       0.00      0.000
1:25pm            140          4          7         44         77       73.5       87.6      29.40       87.6        483       2025       2430       1.71       0.00       0.00      0.000
1:26pm            225          4          4         44         76       73.5       87.7      29.40       87.7        483       2125       2436       1.78       0.00       0.00      0.000
1:27pm            152          2          4         44         76       73.5       87.8      29.40       87.8        483       2126       2442       1.85       0.00       0.00      0.000
1:28pm            153          0          4         46         77       73.5       87.8      29.40       87.8        484       2027       2443       1.83       0.00       0.00      0.000
1:29pm            153          0          4         44         77       73.5       87.8      29.40       87.8        483       2027       2442       1.79       0.00       0.00      0.000
1:30pm            156          0          4         44         76       73.5       87.9      29.40       87.9        484       2127       2449       1.86       0.00       0.00      0.000
1:31pm            335          3          3         44         77       73.5       88.0      29.40       88.0        484       2028       2455       1.93       0.00       0.00      0.000
1:32pm            209          3          3         44         76       73.3       88.1      29.40       88.1        483       2129       2460       2.00       0.00       0.00      0.000
1:33pm            212          3          3         44         77       73.3       88.2      29.40       88.2        483       2030       2466       2.07       0.00       0.00      0.000
1:34pm            213          0          3         44         76       73.3       88.3      29.40       88.3        483       2131       2473       2.13       0.00       0.00      0.000
1:35pm            213          3          3         44         77       73.5       88.5      29.40       88.5        484       2032       2486       2.29       0.00       0.00      0.000
1:36pm            172          3          3         45         74       73.5       88.7      29.40       88.7        484       2338       2498       2.45       0.00       0.00      0.000
1:37pm            219          3          5         44         75       73.5       88.8      29.40       88.8        484       2236       2504       2.51       0.00       0.00      0.000
1:38pm            227          3          5         44         74       73.5       89.0      29.40       89.0        484       2340       2517       2.67       0.00       0.00      0.000
1:39pm            358          1          6         44         76       73.5       89.1      29.40       89.1        484       2137       2523       2.72       0.00       0.00      0.000
1:40pm            223          2          6         44         74       73.5       89.2      29.40       89.2        484       2342       2529       2.78       0.00       0.00      0.000
1:41pm            223          2          2         45         76       73.5       89.2      29.40       89.2        484       2138       2529       2.73       0.00       0.00      0.000
1:42pm            223          1          2         44         76       73.5       89.2      29.40       89.2        485       2138       2530       2.68       0.00       0.00      0.000
1:43pm            212          2          3         44         74       73.5       89.2      29.40       89.2        485       2342       2530       2.64       0.00       0.00      0.000
1:44pm            212          1          3         45         74       73.5       89.2      29.40       89.2        485       2342       2530       2.60       0.00       0.00      0.000
1:45pm            244          1          4         44         74       73.5       89.3      29.40       89.3        485       2343       2536       2.66       0.00       0.00      0.000
1:46pm            294          1          3         44         74       73.5       89.4      29.40       89.4        485       2344       2542       2.71       0.00       0.00      0.000
1:47pm             95          2          3         46         75       73.5       89.5      29.40       89.5        486       2242       2549       2.77       0.00       0.00      0.000
1:48pm             95          1          4         44         73       73.5       89.6      29.40       89.6        487       2450       2557       2.82       0.00       0.00      0.000
1:49pm            175          3          4         44         74       73.5       89.6      29.40       89.6        487       2346       2557       2.77       0.00       0.00      0.000
1:50pm            185          2          4         44         73       73.5       89.7      29.40       89.7        488       2451       2564       2.83       0.00       0.00      0.000
1:51pm            240          3          3         44         75       73.5       89.7      29.40       89.7        488       2244       2565       2.78       0.00       0.00      0.000
1:52pm            320          0          3         44         75       73.5       89.8      29.40       89.8        488       2245       2570       2.83       0.00       0.00      0.000
1:53pm            218          1          3         44         74       73.5       89.9      29.39       89.9        489       2349       2578       2.88       0.00       0.00      0.000
1:54pm            216          4          4         44         75       73.5       90.1      29.39       90.1        489       2248       2590       3.04       0.00       0.00      0.000
1:55pm            216          2          4         44         72       73.5       90.1      29.39       90.1        490       2560       2592       2.99       0.00       0.00      0.000
1:56pm            174          1          4         44         73       73.5       90.2      29.39       90.2        493       2456       2601       3.04       0.00       0.00      0.000
1:57pm            189          1          4         44         72       73.5       90.1      29.39       90.1        491       2560       2593       2.89       0.00       0.00      0.000
1:58pm            189          0          4         44         73       73.5       90.1      29.39       90.1        492       2455       2594       2.84       0.00       0.00      0.000
1:59pm            197          1          4         44         73       73.5       90.2      29.39       90.2        491       2456       2599       2.89       0.00       0.00      0.000
2:00pm            233          0          4         44         73       73.5       90.2      29.39       90.2        493       2456       2601       2.84       0.00       0.00      0.000
2:01pm            233          1          3         44         74       73.5       90.2      29.39       90.2        492       2352       2600       2.80       0.00       0.00      0.000
2:02pm            233          1          3         44         72       73.5       90.3      29.39       90.3        492       2562       2606       2.85       0.00       0.00      0.000
2:03pm            212          2          3         44         74       73.3       90.4      29.39       90.4        492       2354       2612       2.90       0.00       0.00      0.000
2:04pm            199          1          3         44         73       73.3       90.5      29.39       90.5        493       2459       2619       2.95       0.00       0.00      0.000
2:05pm            145          2          5         44         72       73.3       90.5      29.39       90.5        493       2565       2619       2.90       0.00       0.00      0.000
2:06pm            205          2          3         45         73       73.3       90.5      29.39       90.5        492       2459       2618       2.86       0.00       0.00      0.000
2:07pm            206          2          3         44         72       73.3       90.5      29.39       90.5        493       2565       2619       2.81       0.00       0.00      0.000
2:08pm            160          4          4         44         74       73.3       90.6      29.39       90.6        493       2356       2625       2.86       0.00       0.00      0.000
2:09pm            166          1          4         44         73       73.3       90.7      29.39       90.7        490       2461       2628       2.91       0.00       0.00      0.000
2:10pm            220          1          4         44         73       73.3       90.7      29.39       90.7        490       2461       2628       2.87       0.00       0.00      0.000
2:11pm            222          0          1         44         74       73.3       90.8      29.39       90.8        490       2357       2634       2.92       0.00       0.00      0.000
2:12pm            222          0          1         44         74       73.3       90.8      29.39       90.8        490       2357       2634       2.87       0.00       0.00      0.000
2:13pm            222          1          2         44         74       73.1       90.9      29.39       90.9        489       2358       2639       2.92       0.00       0.00      0.000
2:14pm            205          4          6         44         70       73.1       90.9      29.39       90.9        490       2784       2640       2.87       0.00       0.00      0.000
2:15pm            300          3          6         44         72       73.1       90.8      29.39       90.8        489       2568       2633       2.73       0.00       0.00      0.000
2:16pm            220          0          3         44         70       73.1       90.8      29.40       90.8        488       2783       2632       2.68       0.00       0.00      0.000
2:17pm            266          1          5         44         71       73.1       90.7      29.39       90.7        490       2674       2628       2.54       0.00       0.00      0.000
2:18pm            139          2          5         44         71       73.1       90.6      29.40       90.6        488       2673       2620       2.39       0.00       0.00      0.000
2:19pm            164          2          6         44         71       73.1       90.5      29.39       90.5        490       2671       2616       2.25       0.00       0.00      0.000
2:20pm            165          2          6         44         72       73.1       90.5      29.39       90.5        490       2565       2616       2.22       0.00       0.00      0.000
2:21pm            286          3          4         44         71       73.1       90.4      29.39       90.4        489       2670       2609       2.08       0.00       0.00      0.000
2:22pm            286          1          4         44         72       73.1       90.4      29.40       90.4        487       2564       2605       2.05       0.00       0.00      0.000
2:23pm            286          1          4         44         73       73.1       90.4      29.40       90.4        487       2458       2605       2.01       0.00       0.00      0.000
2:24pm            286          0          4         44         73       73.1       90.5      29.40       90.5        488       2459       2613       2.08       0.00       0.00      0.000
2:25pm            356          2          4         44         73       73.1       90.5      29.40       90.5        488       2459       2614       2.05       0.00       0.00      0.000
2:26pm            264          4          4         44         72       73.1       90.6      29.40       90.6        488       2566       2619       2.11       0.00       0.00      0.000
2:27pm            202          3          7         44         72       73.1       90.7      29.40       90.7        487       2567       2624       2.18       0.00       0.00      0.000
2:28pm            255          2          8         44         72       73.1       90.7      29.40       90.7        487       2567       2624       2.14       0.00       0.00      0.000
2:29pm            256          2          8         44         70       73.1       90.7      29.40       90.7        487       2782       2624       2.10       0.00       0.00      0.000
2:30pm            358          1          8         44         73       73.1       90.7      29.40       90.7        486       2461       2623       2.07       0.00       0.00      0.000
2:31pm            187          2          3         45         72       73.1       90.8      29.40       90.8        486       2568       2629       2.13       0.00       0.00      0.000
2:32pm            310          1          3         44         72       73.1       90.8      29.40       90.8        486       2568       2629       2.10       0.00       0.00      0.000
2:33pm            300          2          7         44         70       73.3       90.7      29.40       90.7        487       2782       2624       1.96       0.00       0.00      0.000
2:34pm            274          0          7         44         72       73.3       90.7      29.40       90.7        486       2567       2623       1.93       0.00       0.00      0.000
2:35pm            310          4          7         44         72       73.3       90.6      29.40       90.6        486       2566       2616       1.80       0.00       0.00      0.000
2:36pm            283          1          5         45         70       73.3       90.6      29.40       90.6        484       2781       2614       1.77       0.00       0.00      0.000
2:37pm            214          1          5         44         72       73.3       90.6      29.40       90.6        484       2566       2614       1.74       0.00       0.00      0.000
2:38pm            148          2          5         44         72       73.3       90.5      29.40       90.5        484       2565       2608       1.61       0.00       0.00      0.000
2:39pm            224          2          5         44         71       73.3       90.5      29.40       90.5        484       2671       2608       1.59       0.00       0.00      0.000
2:40pm            300          1          5         44         71       73.3       90.5      29.40       90.5        484       2671       2608       1.56       0.00       0.00      0.000
2:41pm            300          0          1         44         71       73.3       90.4      29.40       90.4        484       2670       2602       1.44       0.00       0.00      0.000
2:42pm            300          0          1         44         71       73.1       90.4      29.40       90.4        484       2670       2602       1.41       0.00       0.00      0.000
2:43pm            300          0          1         44         72       73.1       90.5      29.40       90.5        485       2565       2609       1.49       0.00       0.00      0.000
2:44pm            300          0          1         44         73       73.1       90.6      29.40       90.6        485       2460       2615       1.56       0.00       0.00      0.000
2:45pm            352          2          3         44         72       73.1       90.6      29.40       90.6        486       2566       2616       1.54       0.00       0.00      0.000
2:46pm            197          0          4         45         72       73.1       90.7      29.40       90.7        487       2567       2624       1.61       0.00       0.00      0.000
2:47pm            278          0          4         44         72       73.1       90.8      29.40       90.8        487       2568       2630       1.69       0.00       0.00      0.000
2:48pm            278          1          4         44         73       73.1       90.9      29.40       90.9        488       2463       2637       1.76       0.00       0.00      0.000
2:49pm            233          2          4         44         73       73.1       91.1      29.39       91.1        489       2465       2651       1.93       0.00       0.00      0.000
2:50pm            268          2          4         44         72       73.1       91.0      29.39       91.0        490       2570       2646       1.79       0.00       0.00      0.000
2:51pm            189          0          3         44         73       73.1       91.1      29.39       91.1        491       2465       2654       1.87       0.00       0.00      0.000
2:52pm            189          0          3         44         71       73.1       91.1      29.39       91.1        492       2678       2655       1.83       0.00       0.00      0.000
2:53pm            322          3          7         44         70       73.1       91.1      29.39       91.1        493       2786       2656       1.80       0.00       0.00      0.000
2:54pm            220          3          7         44         71       73.1       91.1      29.39       91.1        495       2678       2658       1.77       0.00       0.00      0.000
2:55pm            223          3          7         44         72       73.1       91.2      29.39       91.2        495       2572       2664       1.84       0.00       0.00      0.000
2:56pm            214          2          3         44         71       73.0       91.3      29.39       91.3        496       2680       2671       1.91       0.00       0.00      0.000
2:57pm            229          3          6         44         69       73.0       91.3      29.39       91.3        497       2899       2673       1.88       0.00       0.00      0.000
2:58pm            266          6          6         44         70       73.0       91.4      29.39       91.4        494       2790       2675       1.95       0.00       0.00      0.000
2:59pm            281          1          6         44         70       73.0       91.3      29.39       91.3        495       2789       2670       1.82       0.00       0.00      0.000
3:00pm            263          1          6         44         69       73.0       91.4      29.39       91.4        496       2900       2678       1.89       0.00       0.00      0.000
3:01pm            314          5          7         44         69       73.0       91.4      29.39       91.4        496       2900       2678       1.86       0.00       0.00      0.000
3:02pm            356          3          7         44         69       73.0       91.4      29.39       91.4        497       2900       2679       1.83       0.00       0.00      0.000
3:03pm            356          0          7         44         70       73.0       91.3      29.39       91.3        496       2789       2671       1.70       0.00       0.00      0.000
3:04pm            356          0          7         44         70       73.0       91.3      29.39       91.3        497       2789       2673       1.67       0.00       0.00      0.000
3:05pm            356          1          7         44         71       73.0       91.3      29.39       91.3        496       2680       2671       1.64       0.00       0.00      0.000
3:06pm            356          1          1         45         70       73.0       91.3      29.39       91.3        497       2789       2673       1.62       0.00       0.00      0.000
3:07pm            356          1          2         44         71       73.0       91.4      29.39       91.4        496       2681       2678       1.69       0.00       0.00      0.000
3:08pm            356          0          2         44         70       73.0       91.4      29.39       91.4        496       2790       2678       1.66       0.00       0.00      0.000
3:09pm            356          3          5         45         71       72.8       91.5      29.39       91.5        497       2682       2685       1.73       0.00       0.00      0.000
3:10pm            355          0          5         44         70       72.8       91.7      29.39       91.7        498       2793       2698       1.90       0.00       0.00      0.000
3:11pm            355          0          0         44         69       72.8       91.7      29.39       91.7        497       2903       2697       1.87       0.00       0.00      0.000
3:12pm            355          0          0         44         70       72.8       91.9      29.39       91.9        497       2795       2709       2.04       0.00       0.00      0.000
3:13pm            198          3          7         44         71       72.8       92.1      29.39       92.1        498       2689       2722       2.20       0.00       0.00      0.000
3:14pm            225          3          7         44         70       72.8       92.1      29.39       92.1        498       2798       2722       2.17       0.00       0.00      0.000
3:15pm            300          2          7         44         68       72.8       92.2      29.39       92.2        497       3021       2727       2.23       0.00       0.00      0.000
3:16pm            300          0          2         44         71       72.8       92.2      29.39       92.2        498       2690       2728       2.20       0.00       0.00      0.000
3:17pm            236          2          4         44         69       72.8       92.1      29.39       92.1        498       2908       2722       2.06       0.00       0.00      0.000
3:18pm            158          5          5         44         70       72.8       92.1      29.39       92.1        498       2798       2722       2.03       0.00       0.00      0.000
3:19pm            245          1          5         44         69       72.8       92.1      29.39       92.1        497       2908       2721       1.99       0.00       0.00      0.000
3:20pm            251          2          5         44         69       72.8       92.0      29.39       92.0        498       2907       2716       1.86       0.00       0.00      0.000
3:21pm            226          1          2         44         70       72.8       92.1      29.38       92.1        499       2798       2723       1.93       0.00       0.00      0.000
3:22pm            187          3          4         44         70       72.6       92.1      29.38       92.1        499       2798       2723       1.90       0.00       0.00      0.000
3:23pm            187          1          4         44         69       72.6       92.1      29.38       92.1        499       2908       2723       1.86       0.00       0.00      0.000
3:24pm            187          1          4         44         71       72.6       92.2      29.38       92.2        499       2690       2730       1.93       0.00       0.00      0.000
3:25pm            225          3          6         44         68       72.6       92.0      29.38       92.0        499       3018       2717       1.70       0.00       0.00      0.000
3:26pm            247          1          3         44         69       72.6       92.0      29.38       92.0        499       2907       2717       1.67       0.00       0.00      0.000
3:27pm            197          1          7         44         68       72.6       91.8      29.39       91.8        498       3016       2704       1.45       0.00       0.00      0.000
3:28pm            197          0          7         44         70       72.6       91.6      29.38       91.6        499       2792       2693       1.22       0.00       0.00      0.000
3:29pm            197          0          7         44         70       72.6       91.5      29.38       91.5        499       2791       2687       1.10       0.00       0.00      0.000
3:30pm            191          1          7         44         70       72.6       91.4      29.38       91.4        500       2790       2682       0.99       0.00       0.00      0.000
3:31pm            293          2          3         44         70       72.6       91.3      29.38       91.3        499       2789       2675       0.87       0.00       0.00      0.000
3:32pm            294          1          3         44         70       72.6       91.1      29.38       91.1        499       2786       2663       0.66       0.00       0.00      0.000
3:33pm            294          1          3         46         72       72.6       91.1      29.38       91.1        499       2571       2663       0.65       0.00       0.00      0.000
3:34pm            283          3          3         44         72       72.6       91.0      29.38       91.0        500       2570       2658       0.54       0.00       0.00      0.000
3:35pm            141          2          4         44         71       72.6       90.8      29.38       90.8        502       2675       2649       0.33       0.00       0.00      0.000
3:36pm            232          3          4         44         71       72.6       90.8      29.38       90.8        501       2675       2648       0.32       0.00       0.00      0.000
3:37pm            205          7          7         44         71       72.6       90.8      29.38       90.8        504       2675       2651       0.32       0.00       0.00      0.000
3:38pm            281          3          7         44         71       72.6       90.7      29.38       90.7        506       2674       2647       0.21       0.00       0.00      0.000
3:39pm            243          1          7         44         74       72.8       90.6      29.38       90.6        502       2356       2637       0.11       0.00       0.00      0.000
3:40pm            327          4          7         44         73       72.8       90.5      29.38       90.5        506       2459       2635       0.01       0.00       0.00      0.000
3:41pm            327          2          4         44         73       72.8       90.5      29.38       90.5        507       2459       2636       0.01       0.00       0.00      0.000
3:42pm            327          2          4         44         73       72.8       90.5      29.38       90.5        505       2459       2634       0.01       0.00       0.00      0.000
3:43pm            327          1          4         44         73       72.8       90.5      29.38       90.5        505       2459       2634       0.01       0.00       0.00      0.000
3:44pm            157          2          4         44         72       72.8       90.5      29.38       90.5        502       2565       2631       0.01       0.00       0.00      0.000
3:45pm            310          5          5         44         74       72.8       90.5      29.38       90.5        500       2355       2628       0.01       0.00       0.00      0.000
3:46pm             81          4          5         44         70       72.8       90.5      29.38       90.5        503       2780       2632       0.01       0.00       0.00      0.000
3:47pm             31          0          6         44         72       72.8       90.5      29.38       90.5        502       2565       2631       0.01       0.00       0.00      0.000
3:48pm            316          2          6         44         68       72.8       90.5      29.38       90.5        506       3000       2635       0.01       0.00       0.00      0.000
3:49pm            320          1          6         44         69       72.8       90.6      29.38       90.6        505       2890       2640       0.11       0.00       0.00      0.000
3:50pm            250          1          6         44         69       72.8       90.6      29.38       90.6        507       2890       2642       0.10       0.00       0.00      0.000
3:51pm            250          2          2         44         70       72.6       90.6      29.38       90.6        507       2781       2642       0.10       0.00       0.00      0.000
3:52pm            253          1          2         46         69       72.6       90.7      29.38       90.7        507       2892       2648       0.20       0.00       0.00      0.000
3:53pm            154          2          3         44         69       72.6       90.7      29.37       90.7        508       2892       2650       0.20       0.00       0.00      0.000
3:54pm             85          2          3         44         69       72.6       90.7      29.37       90.7        510       2892       2652       0.19       0.00       0.00      0.000
3:55pm             85          2          3         44         70       72.6       90.7      29.37       90.7        509       2782       2651       0.19       0.00       0.00      0.000
3:56pm             89          4          4         44         70       72.6       90.8      29.37       90.8        510       2783       2658       0.29       0.00       0.00      0.000
3:57pm            338          3          6         44         69       72.6       90.7      29.37       90.7        511       2892       2653       0.18       0.00       0.00      0.000
3:58pm            244          2          6         44         70       72.6       90.7      29.37       90.7        511       2782       2653       0.18       0.00       0.00      0.000
3:59pm             13          3          6         44         70       72.6       90.6      29.37       90.6        510       2781       2646       0.08       0.00       0.00      0.000
4:00pm            193          2          6         44         68       72.6       90.5      29.37       90.5        511       3000       2641      -0.02       0.00       0.00      0.000
4:01pm            330          1          3         44         70       72.6       90.4      29.37       90.4        510       2779       2633      -0.12       0.00       0.00      0.000
4:02pm            349          2          3         44         68       72.6       90.3      29.37       90.3        511       2998       2628      -0.22       0.00       0.00      0.000
4:03pm            350          0          3         44         69       72.6       90.2      29.37       90.2        511       2886       2622      -0.32       0.00       0.00      0.000
4:04pm            348          0          3         44         71       72.6       90.2      29.37       90.2        512       2668       2624      -0.31       0.00       0.00      0.000
4:05pm            348          0          3         44         71       72.6       90.2      29.37       90.2        512       2668       2624      -0.30       0.00       0.00      0.000
4:06pm            348          0          1         44         71       72.6       90.1      29.37       90.1        512       2667       2617      -0.40       0.00       0.00      0.000
4:07pm            349          1          2         44         71       72.4       90.1      29.37       90.1        512       2667       2617      -0.39       0.00       0.00      0.000
4:08pm            349          0          2         44         71       72.4       90.2      29.37       90.2        512       2668       2624      -0.29       0.00       0.00      0.000
4:09pm            349          1          2         44         72       72.4       90.2      29.37       90.2        512       2561       2624      -0.28       0.00       0.00      0.000
4:10pm            349          0          2         44         71       72.4       90.2      29.37       90.2        512       2668       2624      -0.28       0.00       0.00      0.000
4:11pm            349          0          0         44         71       72.4       90.3      29.37       90.3        512       2669       2631      -0.17       0.00       0.00      0.000
4:12pm            349          0          0         44         71       72.4       90.4      29.37       90.4        512       2670       2637      -0.07       0.00       0.00      0.000
4:13pm            300          1          2         44         71       72.4       90.5      29.37       90.5        512       2671       2643       0.03       0.00       0.00      0.000
4:14pm            238          0          4         44         71       72.4       90.6      29.37       90.6        512       2673       2649       0.13       0.00       0.00      0.000
4:15pm            241          0          4         44         70       72.4       90.7      29.37       90.7        512       2782       2655       0.22       0.00       0.00      0.000
4:16pm            241          0          0         44         70       72.4       90.8      29.37       90.8        512       2783       2661       0.32       0.00       0.00      0.000
4:17pm            241          0          0         44         70       72.4       91.0      29.37       91.0        512       2785       2673       0.51       0.00       0.00      0.000
4:18pm            241          0          0         44         70       72.4       91.1      29.37       91.1        512       2786       2679       0.60       0.00       0.00      0.000
4:19pm            241          0          0         44         69       72.3       91.2      29.37       91.2        513       2897       2687       0.69       0.00       0.00      0.000
4:20pm            241          0          0         44         71       72.3       91.3      29.37       91.3        513       2680       2693       0.78       0.00       0.00      0.000
4:21pm            242          0          2         44         70       72.3       91.5      29.37       91.5        513       2791       2705       0.97       0.00       0.00      0.000
4:22pm            203          0          2         44         70       72.3       91.5      29.37       91.5        513       2791       2705       0.95       0.00       0.00      0.000
4:23pm            203          1          2         44         71       72.3       91.6      29.37       91.6        513       2683       2711       1.03       0.00       0.00      0.000
4:24pm            211          1          5         44         69       72.3       91.6      29.37       91.6        513       2902       2711       1.02       0.00       0.00      0.000
4:25pm            331          1          5         44         70       72.3       91.6      29.37       91.6        513       2792       2711       1.00       0.00       0.00      0.000
4:26pm            331          0          1         44         70       72.3       91.7      29.37       91.7        513       2793       2717       1.08       0.00       0.00      0.000
4:27pm            151          0          1         44         71       72.3       91.7      29.37       91.7        514       2684       2718       1.06       0.00       0.00      0.000
4:28pm            151          1          2         44         69       72.3       91.7      29.37       91.7        513       2903       2717       1.05       0.00       0.00      0.000
4:29pm            100          2          4         44         70       72.3       91.7      29.37       91.7        515       2793       2719       1.03       0.00       0.00      0.000
4:30pm            100          0          4         44         70       72.3       91.7      29.37       91.7        515       2793       2719       1.01       0.00       0.00      0.000
4:31pm            227          2          4         44         69       72.3       91.7      29.37       91.7        515       2903       2719       1.00       0.00       0.00      0.000
4:32pm            212          2          5         44         67       72.3       91.6      29.37       91.6        515       3126       2713       0.88       0.00       0.00      0.000
4:33pm            212          1          5         44         72       72.3       91.7      29.37       91.7        515       2577       2719       0.97       0.00       0.00      0.000
4:34pm            212          0          5         44         73       72.3       91.7      29.37       91.7        516       2471       2720       0.95       0.00       0.00      0.000
4:35pm            212          2          5         44         69       72.3       91.6      29.37       91.6        516       2902       2714       0.84       0.00       0.00      0.000
4:36pm            212          1          3         44         71       72.3       91.6      29.37       91.6        517       2683       2716       0.82       0.00       0.00      0.000
4:37pm            212          0          3         44         72       72.3       91.7      29.37       91.7        516       2577       2720       0.91       0.00       0.00      0.000
4:38pm            212          0          3         44         72       72.3       91.7      29.37       91.7        515       2577       2719       0.89       0.00       0.00      0.000
4:39pm            212          1          3         44         69       72.3       91.7      29.37       91.7        515       2903       2719       0.88       0.00       0.00      0.000
4:40pm            212          0          3         44         71       72.3       91.7      29.37       91.7        516       2684       2720       0.86       0.00       0.00      0.000
4:41pm            210          0          2         44         70       72.3       91.7      29.37       91.7        517       2793       2722       0.85       0.00       0.00      0.000
4:42pm            210          0          2         44         70       72.3       91.7      29.36       91.7        518       2793       2723       0.83       0.00       0.00      0.000
4:43pm            210          0          2         44         71       72.3       91.7      29.36       91.7        519       2684       2724       0.82       0.00       0.00      0.000
4:44pm            210          0          2         44         71       72.3       91.8      29.36       91.8        521       2685       2732       0.91       0.00       0.00      0.000
4:45pm            243          1          4         44         70       72.3       91.9      29.36       91.9        522       2795       2739       0.99       0.00       0.00      0.000
4:46pm            243          1          2         44         70       72.3       91.9      29.36       91.9        521       2795       2738       0.97       0.00       0.00      0.000
4:47pm            243          0          2         44         70       72.3       91.9      29.36       91.9        521       2795       2738       0.96       0.00       0.00      0.000
4:48pm            242          0          2         44         68       72.3       91.9      29.36       91.9        522       3017       2739       0.94       0.00       0.00      0.000
4:49pm            242          0          2         44         70       72.3       92.0      29.36       92.0        522       2796       2745       1.03       0.00       0.00      0.000
4:50pm            248          1          3         44         69       72.3       92.0      29.36       92.0        522       2907       2745       1.01       0.00       0.00      0.000
4:51pm            185          1          4         44         68       72.3       91.9      29.36       91.9        522       3017       2739       0.89       0.00       0.00      0.000
4:52pm            185          1          4         44         68       72.3       92.0      29.36       92.0        523       3018       2747       0.98       0.00       0.00      0.000
4:53pm            185          1          4         44         69       72.3       92.0      29.36       92.0        522       2907       2745       0.96       0.00       0.00      0.000
4:54pm            185          3          4         44         70       72.3       92.1      29.36       92.1        521       2798       2750       1.05       0.00       0.00      0.000
4:55pm            181          2          4         44         69       72.3       92.1      29.36       92.1        522       2908       2752       1.03       0.00       0.00      0.000
4:56pm            181          0          2         44         69       72.3       92.0      29.36       92.0        522       2907       2745       0.91       0.00       0.00      0.000
4:57pm            181          0          2         44         70       72.3       92.0      29.36       92.0        523       2796       2747       0.90       0.00       0.00      0.000
4:58pm            177          3          4         44         69       72.3       91.9      29.36       91.9        524       2905       2742       0.79       0.00       0.00      0.000
4:59pm            177          1          4         44         71       72.3       91.8      29.36       91.8        524       2685       2736       0.67       0.00       0.00      0.000
5:00pm            177          0          4         44         68       72.3       91.7      29.36       91.7        525       3015       2732       0.56       0.00       0.00      0.000
5:01pm            177          0          2         44         70       72.3       91.6      29.36       91.6        524       2792       2724       0.45       0.00       0.00      0.000
5:02pm            118          2          2         44         71       72.3       91.5      29.36       91.5        525       2682       2720       0.35       0.00       0.00      0.000
5:03pm            146          0          2         44         69       72.3       91.5      29.36       91.5        525       2901       2720       0.34       0.00       0.00      0.000
5:04pm            146          1          3         44         70       72.3       91.5      29.36       91.5        526       2791       2721       0.34       0.00       0.00      0.000
5:05pm            147          0          3         44         71       72.3       91.5      29.36       91.5        525       2682       2720       0.33       0.00       0.00      0.000
5:06pm            305          1          4         44         69       72.3       91.3      29.36       91.3        526       2899       2708       0.13       0.00       0.00      0.000
5:07pm            305          0          4         44         71       72.3       91.3      29.35       91.3        527       2680       2710       0.13       0.00       0.00      0.000
5:08pm            185          4          4         44         72       72.3       91.3      29.35       91.3        527       2573       2710       0.12       0.00       0.00      0.000
5:09pm            227          1          5         44         70       72.3       91.3      29.36       91.3        526       2789       2708       0.12       0.00       0.00      0.000
5:10pm            310          0          5         44         71       72.3       91.2      29.36       91.2        526       2679       2702       0.02       0.00       0.00      0.000
5:11pm            243          1          2         44         70       72.1       91.1      29.36       91.1        526       2786       2696      -0.08       0.00       0.00      0.000
5:12pm            243          0          2         44         73       72.1       91.1      29.36       91.1        526       2465       2696      -0.08       0.00       0.00      0.000
5:13pm            243          0          2         44         73       72.1       91.1      29.36       91.1        525       2465       2695      -0.08       0.00       0.00      0.000
5:14pm            140          3          5         44         71       72.1       91.1      29.35       91.1        527       2678       2697      -0.08       0.00       0.00      0.000
5:15pm            140          0          5         44         70       72.1       91.0      29.35       91.0        527       2785       2691      -0.17       0.00       0.00      0.000
5:16pm            141          1          2         44         72       72.1       91.0      29.35       91.0        527       2570       2691      -0.17       0.00       0.00      0.000
5:17pm            141          2          2         44         71       72.1       91.0      29.35       91.0        527       2677       2691      -0.17       0.00       0.00      0.000
5:18pm            141          0          2         44         71       72.1       91.0      29.35       91.0        528       2677       2692      -0.17       0.00       0.00      0.000
5:19pm            160          1          4         44         70       72.1       91.0      29.35       91.0        528       2785       2692      -0.16       0.00       0.00      0.000
5:20pm            206          3          4         44         70       72.1       90.9      29.35       90.9        528       2784       2686      -0.26       0.00       0.00      0.000
5:21pm            211          5          5         44         71       72.1       90.9      29.35       90.9        528       2676       2686      -0.25       0.00       0.00      0.000
5:22pm            211          4          5         44         71       72.1       90.9      29.35       90.9        527       2676       2685      -0.25       0.00       0.00      0.000
5:23pm            193          1          6         44         70       72.1       90.8      29.35       90.8        527       2783       2679      -0.34       0.00       0.00      0.000
5:24pm            195          2          6         44         71       72.1       90.8      29.35       90.8        527       2675       2679      -0.34       0.00       0.00      0.000
5:25pm            236          2          6         44         70       72.1       90.8      29.35       90.8        527       2783       2679      -0.33       0.00       0.00      0.000
5:26pm            236          0          2         44         72       72.1       90.7      29.35       90.7        527       2567       2673      -0.43       0.00       0.00      0.000
5:27pm            236          0          2         44         73       72.1       90.7      29.35       90.7        528       2461       2674      -0.42       0.00       0.00      0.000
5:28pm            236          0          2         44         73       72.1       90.6      29.35       90.6        528       2460       2668      -0.51       0.00       0.00      0.000
5:29pm            236          2          2         44         72       72.1       90.6      29.35       90.6        528       2566       2668      -0.50       0.00       0.00      0.000
5:30pm            202          1          4         44         71       72.1       90.6      29.35       90.6        528       2673       2668      -0.49       0.00       0.00      0.000
5:31pm            187          1          4         44         71       72.1       90.5      29.35       90.5        528       2671       2662      -0.58       0.00       0.00      0.000
5:32pm            189          0          4         44         72       72.1       90.4      29.35       90.4        528       2564       2656      -0.67       0.00       0.00      0.000
5:33pm            189          1          4         44         72       72.1       90.5      29.35       90.5        528       2565       2662      -0.56       0.00       0.00      0.000
5:34pm            189          0          4         44         71       72.1       90.5      29.35       90.5        528       2671       2662      -0.55       0.00       0.00      0.000
5:35pm            171          0          4         44         70       72.1       90.4      29.35       90.4        527       2779       2655      -0.64       0.00       0.00      0.000
5:36pm            171          2          2         44         70       72.1       90.3      29.35       90.3        527       2777       2649      -0.73       0.00       0.00      0.000
5:37pm            171          2          3         44         71       72.1       90.3      29.35       90.3        527       2669       2649      -0.72       0.00       0.00      0.000
5:38pm            160          2          4         44         71       72.1       90.2      29.35       90.2        527       2668       2643      -0.81       0.00       0.00      0.000
5:39pm            208          3          4         44         71       72.1       90.2      29.35       90.2        527       2668       2643      -0.79       0.00       0.00      0.000
5:40pm            209          2          4         44         72       72.1       90.1      29.35       90.1        527       2560       2637      -0.88       0.00       0.00      0.000
5:41pm            209          2          2         44         74       72.1       90.1      29.35       90.1        528       2351       2638      -0.87       0.00       0.00      0.000
5:42pm            209          0          2         44         72       72.1       90.1      29.35       90.1        528       2560       2638      -0.85       0.00       0.00      0.000
5:43pm            209          1          3         44         71       72.1       90.0      29.35       90.0        528       2666       2632      -0.94       0.00       0.00      0.000
5:44pm            209          0          3         44         72       72.1       90.0      29.35       90.0        527       2559       2630      -0.92       0.00       0.00      0.000
5:45pm            209          0          3         44         72       72.3       89.9      29.35       89.9        527       2558       2624      -1.00       0.00       0.00      0.000
5:46pm            212          2          5         44         72       72.3       89.8      29.35       89.8        527       2557       2618      -1.09       0.00       0.00      0.000
5:47pm            212          1          5         44         72       72.3       89.8      29.35       89.8        527       2557       2618      -1.07       0.00       0.00      0.000
5:48pm            212          0          5         44         72       72.3       89.8      29.35       89.8        527       2557       2618      -1.05       0.00       0.00      0.000
5:49pm            212          1          5         44         72       72.3       89.8      29.35       89.8        528       2557       2619      -1.03       0.00       0.00      0.000
5:50pm            212          1          5         46         73       72.3       89.8      29.35       89.8        528       2452       2619      -1.02       0.00       0.00      0.000
5:51pm            212          1          3         44         73       72.3       89.7      29.35       89.7        529       2451       2614      -1.10       0.00       0.00      0.000
5:52pm            212          0          3         44         73       72.1       89.8      29.35       89.8        529       2452       2620      -0.98       0.00       0.00      0.000
5:53pm            136          1          3         44         73       72.1       89.7      29.35       89.7        530       2451       2615      -1.06       0.00       0.00      0.000
5:54pm            136          1          3         44         74       72.1       89.7      29.35       89.7        531       2347       2617      -1.05       0.00       0.00      0.000
5:55pm            136          0          3         44         74       72.1       89.7      29.35       89.7        530       2347       2615      -1.03       0.00       0.00      0.000
5:56pm            136          0          0         44         74       72.1       89.7      29.35       89.7        532       2347       2618      -1.01       0.00       0.00      0.000
5:57pm            136          0          2         44         75       72.1       89.6      29.35       89.6        532       2243       2612      -1.09       0.00       0.00      0.000
5:58pm            136          0          2         44         74       72.1       89.6      29.35       89.6        534       2346       2614      -1.08       0.00       0.00      0.000
5:59pm            160          0          2         44         75       72.1       89.6      29.35       89.6        535       2243       2615      -1.06       0.00       0.00      0.000
6:00pm            160          1          2         44         75       72.1       89.5      29.35       89.5        535       2242       2609      -1.14       0.00       0.00      0.000
6:01pm            160          0          1         44         75       72.1       89.5      29.35       89.5        535       2242       2609      -1.12       0.00       0.00      0.000
6:02pm            161          2          3         44         76       72.1       89.5      29.35       89.5        535       2141       2609      -1.10       0.00       0.00      0.000
6:03pm            161          0          3         44         75       72.1       89.4      29.35       89.4        535       2242       2603      -1.18       0.00       0.00      0.000
6:04pm            245          1          4         44         75       72.1       89.4      29.35       89.4        534       2242       2602      -1.17       0.00       0.00      0.000
6:05pm            232          3          4         44         73       72.1       89.4      29.35       89.4        535       2448       2603      -1.14       0.00       0.00      0.000
6:06pm            187          1          4         44         73       72.1       89.4      29.35       89.4        534       2448       2602      -1.12       0.00       0.00      0.000
6:07pm            187          0          4         44         74       72.1       89.4      29.35       89.4        535       2344       2603      -1.11       0.00       0.00      0.000
6:08pm            187          0          4         44         74       72.1       89.4      29.35       89.4        535       2344       2603      -1.09       0.00       0.00      0.000
6:09pm            187          1          4         46         74       72.1       89.4      29.35       89.4        535       2344       2603      -1.07       0.00       0.00      0.000
6:10pm            187          2          4         44         74       72.1       89.4      29.35       89.4        535       2344       2603      -1.05       0.00       0.00      0.000
6:11pm            187          0          2         44         74       72.1       89.4      29.35       89.4        535       2344       2603      -1.04       0.00       0.00      0.000
6:12pm            187          2          2         44         75       71.9       89.5      29.35       89.5        534       2242       2608      -0.92       0.00       0.00      0.000
6:13pm            187          1          3         44         75       71.9       89.3      29.35       89.3        534       2241       2596      -1.10       0.00       0.00      0.000
6:14pm            187          1          3         44         74       71.9       89.3      29.35       89.3        533       2343       2594      -1.08       0.00       0.00      0.000
6:15pm            187          0          3         44         75       71.9       89.2      29.35       89.2        533       2240       2588      -1.17       0.00       0.00      0.000
6:16pm            187          1          1         44         75       72.1       89.3      29.35       89.3        532       2241       2593      -1.05       0.00       0.00      0.000
6:17pm            208          3          4         44         76       72.1       89.1      29.35       89.1        533       2137       2582      -1.23       0.00       0.00      0.000
6:18pm            208          0          4         44         74       72.1       89.0      29.35       89.0        532       2340       2575      -1.31       0.00       0.00      0.000
6:19pm            233          2          4         44         75       72.1       89.0      29.35       89.0        532       2238       2575      -1.29       0.00       0.00      0.000
6:20pm            235          1          4         44         76       72.1       89.0      29.35       89.0        532       2137       2575      -1.27       0.00       0.00      0.000
6:21pm            233          3          3         44         75       72.1       88.9      29.35       88.9        531       2237       2568      -1.34       0.00       0.00      0.000
6:22pm            216          2          3         44         75       72.1       88.8      29.35       88.8        531       2236       2562      -1.42       0.00       0.00      0.000
6:23pm            216          0          3         44         75       72.1       88.8      29.35       88.8        530       2236       2560      -1.40       0.00       0.00      0.000
6:24pm            216          1          3         44         76       72.1       88.7      29.35       88.7        530       2134       2554      -1.47       0.00       0.00      0.000
6:25pm            167          3          3         44         76       72.1       88.7      29.35       88.7        529       2134       2553      -1.45       0.00       0.00      0.000
6:26pm            164          0          5         44         75       72.1       88.6      29.35       88.6        530       2234       2548      -1.53       0.00       0.00      0.000
6:27pm            188          2          5         44         76       72.1       88.6      29.35       88.6        530       2133       2548      -1.50       0.00       0.00      0.000
6:28pm            209          1          5         44         76       72.1       88.5      29.35       88.5        530       2132       2542      -1.57       0.00       0.00      0.000
6:29pm            209          0          5         44         77       72.1       88.5      29.35       88.5        530       2032       2542      -1.55       0.00       0.00      0.000
6:30pm            209          0          5         44         76       72.1       88.5      29.35       88.5        529       2132       2541      -1.53       0.00       0.00      0.000
6:31pm            209          0          0         44         77       72.1       88.5      29.35       88.5        529       2032       2541      -1.50       0.00       0.00      0.000
6:32pm            209          0          0         44         77       72.1       88.4      29.35       88.4        529       2032       2535      -1.57       0.00       0.00      0.000
6:33pm            209          0          0         44         76       72.1       88.4      29.35       88.4        529       2131       2535      -1.55       0.00       0.00      0.000
6:34pm            209          0          0         44         77       72.1       88.3      29.35       88.3        529       2031       2529      -1.62       0.00       0.00      0.000
6:35pm            209          0          0         44         76       72.1       88.3      29.35       88.3        529       2131       2529      -1.60       0.00       0.00      0.000
6:36pm            209          0          0         44         76       72.1       88.3      29.35       88.3        529       2131       2529      -1.57       0.00       0.00      0.000
6:37pm            209          1          1         44         76       72.1       88.3      29.35       88.3        528       2131       2528      -1.54       0.00       0.00      0.000
6:38pm            209          0          2         44         76       72.1       88.2      29.35       88.2        528       2130       2521      -1.62       0.00       0.00      0.000
6:39pm            209          0          2         44         76       72.1       88.2      29.35       88.2        528       2130       2521      -1.59       0.00       0.00      0.000
6:40pm            209          0          2         44         76       72.1       88.2      29.35       88.2        528       2130       2521      -1.56       0.00       0.00      0.000
6:41pm            209          0          0         44         76       72.1       88.2      29.35       88.2        528       2130       2521      -1.54       0.00       0.00      0.000
6:42pm            209          0          0         44         76       72.1       88.2      29.36       88.2        526       2130       2519      -1.51       0.00       0.00      0.000
6:43pm            209          0          0         44         76       72.1       88.1      29.36       88.1        526       2129       2513      -1.59       0.00       0.00      0.000
6:44pm            209          0          0         44         76       72.1       88.1      29.36       88.1        526       2129       2513      -1.56       0.00       0.00      0.000
6:45pm            209          0          0         44         76       72.1       88.1      29.36       88.1        526       2129       2513      -1.53       0.00       0.00      0.000
6:46pm            209          0          0         44         76       72.1       88.2      29.36       88.2        526       2130       2519      -1.41       0.00       0.00      0.000
6:47pm            209          0          0         44         77       72.1       88.1      29.36       88.1        526       2029       2513      -1.49       0.00       0.00      0.000
6:48pm            209          0          0         44         77       72.1       88.1      29.35       88.1        527       2029       2514      -1.46       0.00       0.00      0.000
6:49pm            209          0          0         44         76       72.1       88.2      29.35       88.2        527       2130       2520      -1.34       0.00       0.00      0.000
6:50pm            209          0          0         44         77       72.1       88.1      29.35       88.1        527       2029       2514      -1.42       0.00       0.00      0.000
6:51pm            209          0          0         44         77       71.9       88.1      29.35       88.1        527       2029       2514      -1.39       0.00       0.00      0.000
6:52pm            209          0          0         44         77       71.9       88.1      29.35       88.1        527       2029       2514      -1.37       0.00       0.00      0.000
6:53pm            209          0          0         44         77       71.9       88.0      29.35       88.0        527       2028       2508      -1.45       0.00       0.00      0.000
6:54pm            209          0          0         44         77       71.9       87.9      29.35       87.9        527       2027       2502      -1.52       0.00       0.00      0.000
6:55pm            209          0          0         44         77       71.9       87.9      29.35       87.9        527       2027       2502      -1.50       0.00       0.00      0.000
6:56pm            209          0          0         44         77       71.9       87.9      29.35       87.9        527       2027       2502      -1.47       0.00       0.00      0.000
6:57pm            209          0          0         44         77       71.9       87.8      29.35       87.8        527       2027       2496      -1.55       0.00       0.00      0.000
6:58pm            209          0          0         44         77       71.9       87.8      29.35       87.8        527       2027       2496      -1.52       0.00       0.00      0.000
6:59pm            209          0          0         44         77       71.9       87.7      29.35       87.7        527       2026       2490      -1.60       0.00       0.00      0.000
7:00pm            209          0          0         44         77       72.1       87.7      29.35       87.7        528       2026       2491      -1.57       0.00       0.00      0.000
7:01pm            209          0          0         44         78       72.1       87.6      29.35       87.6        530       1926       2487      -1.64       0.00       0.00      0.000
7:02pm            209          0          0         44         78       72.1       87.6      29.35       87.6        529       1926       2486      -1.62       0.00       0.00      0.000
7:03pm            209          0          0         44         78       72.1       87.6      29.35       87.6        530       1926       2487      -1.59       0.00       0.00      0.000
7:04pm            209          0          0         44         78       72.1       87.5      29.35       87.5        529       1926       2480      -1.66       0.00       0.00      0.000
7:05pm            209          0          0         44         78       72.1       87.4      29.35       87.4        529       1925       2474      -1.73       0.00       0.00      0.000
7:06pm            193          3          3         44         78       72.1       87.4      29.35       87.4        529       1925       2474      -1.71       0.00       0.00      0.000
7:07pm            200          3          3         44         78       72.1       87.2      29.35       87.2        530       1923       2462      -1.88       0.00       0.00      0.000
7:08pm            188          1          4         44         79       72.1       87.2      29.35       87.2        531       1826       2463      -1.84       0.00       0.00      0.000
7:09pm            188          0          4         44         79       72.1       87.0      29.35       87.0        531       1825       2451      -2.01       0.00       0.00      0.000
7:10pm            188          2          4         44         79       72.1       87.0      29.35       87.0        532       1825       2452      -1.98       0.00       0.00      0.000
7:11pm            188          0          2         44         79       72.1       86.9      29.35       86.9        531       1824       2445      -2.05       0.00       0.00      0.000
7:12pm            188          0          2         44         79       72.1       86.9      29.35       86.9        531       1824       2445      -2.01       0.00       0.00      0.000
7:13pm            188          0          2         44         80       72.1       86.8      29.35       86.8        530       1727       2438      -2.08       0.00       0.00      0.000
7:14pm            188          0          2         44         80       72.1       86.7      29.35       86.7        530       1726       2432      -2.14       0.00       0.00      0.000
7:15pm            188          0          2         44         80       72.1       86.6      29.35       86.6        530       1726       2426      -2.21       0.00       0.00      0.000
7:16pm            188          0          0         44         80       72.1       86.6      29.35       86.6        532       1726       2428      -2.17       0.00       0.00      0.000
7:17pm            188          0          0         44         81       72.1       86.5      29.35       86.5        532       1630       2422      -2.23       0.00       0.00      0.000
7:18pm            188          0          0         44         81       72.1       86.4      29.35       86.4        532       1630       2415      -2.30       0.00       0.00      0.000
7:19pm            188          0          0         44         81       72.1       86.3      29.35       86.3        533       1629       2410      -2.36       0.00       0.00      0.000
7:20pm            188          0          0         44         81       72.1       86.2      29.35       86.2        533       1628       2404      -2.42       0.00       0.00      0.000
7:21pm            188          0          0         44         81       72.1       86.2      29.35       86.2        535       1628       2407      -2.38       0.00       0.00      0.000
7:22pm            188          0          0         44         82       72.1       86.1      29.35       86.1        536       1534       2401      -2.44       0.00       0.00      0.000
7:23pm            188          1          1         44         82       72.1       86.0      29.35       86.0        536       1533       2395      -2.50       0.00       0.00      0.000
7:24pm            188          1          3         44         82       72.1       85.9      29.35       85.9        536       1533       2389      -2.55       0.00       0.00      0.000
7:25pm            188          1          3         44         82       72.1       85.8      29.35       85.8        536       1532       2383      -2.61       0.00       0.00      0.000
7:26pm            188          0          1         44         82       72.1       85.7      29.34       85.7        536       1531       2378      -2.67       0.00       0.00      0.000
7:27pm            188          0          1         44         82       72.1       85.6      29.34       85.6        536       1531       2372      -2.72       0.00       0.00      0.000
7:28pm            188          0          1         44         82       72.1       85.6      29.34       85.6        536       1531       2372      -2.68       0.00       0.00      0.000
7:29pm            154          3          4         44         82       72.1       85.5      29.34       85.5        538       1530       2368      -2.73       0.00       0.00      0.000
7:30pm            167          0          4         44         82       72.1       85.4      29.34       85.4        540       1530       2364      -2.78       0.00       0.00      0.000
7:31pm            170          3          4         44         82       72.1       85.4      29.34       85.4        540       1530       2364      -2.74       0.00       0.00      0.000
7:32pm            177          3          4         44         82       72.1       85.3      29.34       85.3        541       1529       2359      -2.80       0.00       0.00      0.000
7:33pm            179          3          6         44         82       72.1       85.2      29.34       85.2        542       1528       2354      -2.85       0.00       0.00      0.000
7:34pm            179          3          6         44         82       72.1       85.2      29.34       85.2        542       1528       2354      -2.80       0.00       0.00      0.000
7:35pm            179          1          6         44         82       72.1       85.1      29.34       85.1        541       1528       2347      -2.85       0.00       0.00      0.000
7:36pm            179          1          1         44         83       72.1       85.1      29.34       85.1        541       1435       2347      -2.81       0.00       0.00      0.000
7:37pm            179          0          1         44         83       72.1       85.0      29.34       85.0        541       1435       2340      -2.86       0.00       0.00      0.000
7:38pm            179          2          3         44         83       72.1       84.9      29.34       84.9        542       1434       2335      -2.91       0.00       0.00      0.000
7:39pm            179          1          4         44         83       72.1       84.9      29.34       84.9        543       1434       2337      -2.86       0.00       0.00      0.000
7:40pm            179          0          4         44         83       72.1       84.7      29.34       84.7        543       1433       2324      -3.01       0.00       0.00      0.000
7:41pm            179          0          0         44         83       72.1       84.7      29.34       84.7        544       1433       2325      -2.96       0.00       0.00      0.000
7:42pm            179          0          0         44         84       72.1       84.7      29.33       84.7        547       1342       2329      -2.91       0.00       0.00      0.000
7:43pm            179          0          2         44         83       72.1       84.6      29.33       84.6        549       1432       2326      -2.97       0.00       0.00      0.000
7:44pm            179          0          2         44         84       72.1       84.6      29.33       84.6        550       1341       2327      -2.92       0.00       0.00      0.000
7:45pm            179          1          2         44         84       72.1       84.5      29.33       84.5        551       1341       2322      -2.97       0.00       0.00      0.000
7:46pm            209          4          4         45         84       72.1       84.4      29.33       84.4        552       1340       2317      -3.02       0.00       0.00      0.000
7:47pm            140          0          4         44         84       72.1       84.4      29.33       84.4        553       1340       2318      -2.97       0.00       0.00      0.000
7:48pm            141          0          4         44         84       72.1       84.3      29.33       84.3        552       1340       2311      -3.02       0.00       0.00      0.000
7:49pm            142          0          4         44         84       72.1       84.2      29.33       84.2        553       1339       2306      -3.07       0.00       0.00      0.000
7:50pm            142          0          4         44         85       72.1       84.1      29.33       84.1        554       1249       2301      -3.12       0.00       0.00      0.000
7:51pm            142          0          0         45         84       72.1       84.1      29.32       84.1        555       1339       2302      -3.06       0.00       0.00      0.000
7:52pm            142          0          0         44         84       72.3       84.1      29.32       84.1        555       1339       2302      -3.01       0.00       0.00      0.000
7:53pm            142          1          2         44         85       72.3       84.0      29.32       84.0        556       1248       2297      -3.06       0.00       0.00      0.000
7:54pm            142          2          2         44         84       72.3       83.9      29.32       83.9        555       1337       2289      -3.11       0.00       0.00      0.000
7:55pm            142          0          2         44         85       72.3       83.9      29.33       83.9        554       1248       2288      -3.06       0.00       0.00      0.000
7:56pm            142          0          0         44         85       72.3       83.8      29.33       83.8        552       1247       2280      -3.11       0.00       0.00      0.000
7:57pm            142          0          0         44         85       72.3       83.8      29.33       83.8        552       1247       2280      -3.05       0.00       0.00      0.000
7:58pm            144          1          3         44         85       72.3       83.8      29.33       83.8        551       1247       2279      -3.01       0.00       0.00      0.000
7:59pm            144          0          3         44         85       72.3       83.7      29.33       83.7        550       1247       2271      -3.05       0.00       0.00      0.000
8:00pm            144          0          3         44         85       72.3       83.7      29.33       83.7        548       1247       2269      -3.00       0.00       0.00      0.000
8:01pm            144          0          0         44         85       72.3       83.7      29.33       83.7        546       1247       2266      -2.96       0.00       0.00      0.000
8:02pm            144          0          0         44         85       72.3       83.7      29.34       83.7        544       1247       2263      -2.91       0.00       0.00      0.000
8:03pm            144          0          1         44         85       72.3       83.7      29.34       83.7        544       1247       2263      -2.86       0.00       0.00      0.000
8:04pm            144          0          1         44         85       72.3       83.6      29.34       83.6        543       1246       2256      -2.91       0.00       0.00      0.000
8:05pm            144          0          1         44         85       72.3       83.6      29.34       83.6        543       1246       2256      -2.86       0.00       0.00      0.000
8:06pm            144          0          0         44         85       72.1       83.6      29.34       83.6        542       1246       2255      -2.81       0.00       0.00      0.000
8:07pm            144          0          1         44         85       72.1       83.6      29.34       83.6        541       1246       2254      -2.77       0.00       0.00      0.000
8:08pm            144          0          1         44         85       72.1       83.6      29.34       83.6        539       1246       2252      -2.72       0.00       0.00      0.000
8:09pm            144          0          1         44         85       72.1       83.6      29.35       83.6        535       1246       2246      -2.68       0.00       0.00      0.000
8:10pm            144          0          1         44         85       72.1       83.6      29.35       83.6        531       1246       2242      -2.63       0.00       0.00      0.000
8:11pm            144          0          0         44         85       72.1       83.6      29.35       83.6        530       1246       2240      -2.59       0.00       0.00      0.000
8:12pm            144          0          0         44         85       72.1       83.6      29.35       83.6        529       1246       2239      -2.54       0.00       0.00      0.000
8:13pm            144          0          0         45         85       72.1       83.6      29.35       83.6        529       1246       2239      -2.50       0.00       0.00      0.000
8:14pm            144          0          0         44         85       72.1       83.6      29.35       83.6        528       1246       2238      -2.46       0.00       0.00      0.000
8:15pm            144          0          0         44         85       72.1       83.6      29.35       83.6        528       1246       2238      -2.42       0.00       0.00      0.000
8:16pm            144          0          0         45         85       72.1       83.6      29.35       83.6        528       1246       2238      -2.38       0.00       0.00      0.000
8:17pm            144          0          0         44         85       72.1       83.7      29.35       83.7        527       1247       2243      -2.24       0.00       0.00      0.000
8:18pm            144          0          0         44         85       72.1       83.7      29.36       83.7        526       1247       2242      -2.21       0.00       0.00      0.000
8:19pm            144          0          0         44         85       72.1       83.6      29.36       83.6        526       1246       2236      -2.27       0.00       0.00      0.000
8:20pm            144          0          0         44         85       72.1       83.6      29.36       83.6        525       1246       2235      -2.23       0.00       0.00      0.000
8:21pm            144          0          0         45         85       72.3       83.6      29.36       83.6        524       1246       2234      -2.19       0.00       0.00      0.000
8:22pm            144          0          0         44         85       72.3       83.6      29.36       83.6        524       1246       2234      -2.16       0.00       0.00      0.000
8:23pm            144          0          0         44         85       72.3       83.6      29.36       83.6        524       1246       2234      -2.12       0.00       0.00      0.000
8:24pm            144          0          0         45         85       72.3       83.6      29.36       83.6        525       1246       2235      -2.09       0.00       0.00      0.000
8:25pm            144          0          0         44         85       72.3       83.6      29.36       83.6        526       1246       2236      -2.05       0.00       0.00      0.000
8:26pm            144          0          0         45         85       72.3       83.5      29.35       83.5        527       1246       2231      -2.12       0.00       0.00      0.000
8:27pm            144          0          0         45         85       72.3       83.5      29.35       83.5        527       1246       2231      -2.08       0.00       0.00      0.000
8:28pm            144          0          0         44         86       72.3       83.5      29.35       83.5        527       1157       2231      -2.05       0.00       0.00      0.000
8:29pm            144          0          1         44         86       72.3       83.4      29.35       83.4        527       1156       2225      -2.11       0.00       0.00      0.000
8:30pm            144          0          1         44         86       72.3       83.4      29.35       83.4        527       1156       2225      -2.08       0.00       0.00      0.000
8:31pm            144          0          0         45         86       72.3       83.4      29.36       83.4        525       1156       2222      -2.04       0.00       0.00      0.000
8:32pm            144          0          0         44         86       72.3       83.4      29.36       83.4        523       1156       2219      -2.01       0.00       0.00      0.000
8:33pm            144          0          0         44         86       72.4       83.3      29.36       83.3        522       1156       2212      -2.08       0.00       0.00      0.000
8:34pm            144          0          0         44         86       72.4       83.2      29.36       83.2        522       1155       2205      -2.14       0.00       0.00      0.000
8:35pm            144          0          0         45         86       72.4       83.3      29.36       83.3        524       1156       2214      -2.00       0.00       0.00      0.000
8:36pm            144          0          0         44         86       72.4       83.2      29.36       83.2        524       1155       2209      -2.07       0.00       0.00      0.000
8:37pm            144          0          1         44         86       72.4       83.1      29.36       83.1        524       1155       2202      -2.14       0.00       0.00      0.000
8:38pm            144          0          1         45         86       72.4       83.1      29.36       83.1        522       1155       2199      -2.10       0.00       0.00      0.000
8:39pm            144          0          1         44         86       72.4       83.1      29.36       83.1        521       1155       2198      -2.07       0.00       0.00      0.000
8:40pm            145          0          1         44         86       72.4       83.0      29.36       83.0        518       1154       2189      -2.13       0.00       0.00      0.000

Data provided from:  Mark Hofmann's Bel Air, MD Weather Station